GFSFLT1_700_spd_000.txt.gz
Wind_Speed
9 7 7 8 8 9 10 11 12 12 12 12 13 13 14 13 14 13 14 13 16 15 15 14 17 19 19 18 18 18 18 18 19
7 5 5 5 6 7 9 9 9 9 9 9 10 10 11 12 13 14 14 13 14 15 15 15 16 19 19 20 19 19 20 19 19
6 6 6 6 6 7 7 7 7 8 8 9 10 11 11 12 13 13 14 14 14 15 16 15 16 18 18 19 20 20 22 21 21
7 6 5 5 6 6 7 7 8 8 9 9 10 10 11 12 12 13 14 15 14 14 14 17 18 18 19 20 20 20 21 22 22
7 7 6 6 7 8 8 9 10 11 12 13 14 14 15 15 16 17 18 18 18 19 19 19 19 20 20 21 22 22 22 23 23
9 8 10 11 11 12 13 14 15 17 18 19 20 20 19 19 19 19 20 21 22 23 24 23 23 24 24 24 25 24 25 24 25
10 11 11 13 14 16 17 18 19 20 20 20 20 19 19 19 19 19 19 20 22 23 24 24 24 24 26 26 27 27 29 28 27
11 12 13 15 16 17 18 18 18 18 18 18 19 20 20 21 21 21 21 22 23 23 23 24 24 24 25 27 28 29 30 29 30
14 15 16 16 17 18 17 19 20 22 23 24 25 25 26 26 26 26 26 27 27 27 27 27 27 26 27 28 28 28 29 31 32
16 16 17 17 18 19 22 24 26 27 26 27 27 27 27 29 29 29 29 30 31 31 31 31 30 29 27 27 26 28 29 31 33
18 19 19 19 21 23 25 26 27 28 28 28 29 29 29 29 27 27 27 28 29 30 30 31 32 30 30 29 28 30 32 34 35
20 21 21 23 24 26 27 28 29 30 31 30 28 26 26 26 27 27 27 28 29 29 30 30 31 28 29 33 33 36 36 36 39
21 22 23 25 26 28 29 30 32 32 29 25 24 25 27 27 27 28 28 29 28 28 29 30 31 32 32 33 36 38 38 40 41
22 23 24 26 28 29 31 33 31 27 26 26 25 26 28 28 28 27 28 28 27 28 28 28 29 30 31 32 33 34 34 36 39
21 22 25 27 29 31 31 27 27 29 27 26 26 27 28 27 26 26 27 28 29 29 30 30 30 32 33 35 37 40 41 42 44
21 24 26 29 30 27 24 26 26 29 28 28 26 25 27 27 27 26 27 28 28 28 30 31 34 35 37 39 41 43 45 46 46
23 26 28 28 27 26 26 26 26 29 32 33 32 31 28 29 29 29 31 32 33 34 36 37 39 41 42 42 42 44 46 49 47
24 26 26 25 25 26 27 27 28 29 32 36 38 40 40 40 35 35 36 39 40 42 43 45 45 46 46 46 45 45 47 47 49
23 23 23 23 24 26 28 30 31 32 33 34 35 38 42 46 52 41 40 43 46 47 48 48 49 49 49 47 46 45 46 46 49
22 22 24 26 28 30 32 34 35 36 36 37 37 38 39 43 49 57 54 50 49 50 52 50 49 49 47 45 45 45 47 49 49

GFSFLT1_700_spd_003.txt.gz
Wind_Speed
4 3 4 5 7 7 8 9 10 10 10 10 11 11 11 11 11 11 11 12 14 13 14 15 16 17 16 17 15 15 17 16 16
4 4 4 4 5 6 6 7 8 8 8 8 9 10 11 11 12 13 13 13 14 15 14 15 15 16 18 18 18 18 18 18 18
5 3 4 5 6 7 8 8 8 9 9 10 10 11 12 13 14 14 14 14 14 14 15 15 16 16 17 18 19 19 20 20 20
8 7 6 6 6 7 8 8 8 9 10 11 13 14 15 16 17 17 18 18 18 17 17 17 17 17 19 20 21 21 21 21 21
7 6 6 6 6 8 9 10 11 12 13 13 14 15 16 17 18 19 21 22 22 22 22 22 21 21 21 21 22 22 22 22 22
9 9 8 9 10 11 11 12 13 13 13 14 14 15 16 16 17 18 20 21 22 23 24 24 25 25 24 25 25 25 24 25 25
11 12 12 12 14 14 14 14 14 14 14 15 15 15 16 16 18 19 21 23 24 24 24 24 25 25 24 25 25 26 25 25 26
13 13 15 15 15 15 15 16 16 16 17 17 18 19 19 20 20 21 22 23 24 25 26 26 28 29 28 28 26 26 26 27 27
14 15 16 16 16 15 15 17 19 20 21 21 22 23 23 23 23 23 24 25 26 26 27 28 29 30 30 29 27 26 27 28 29
16 16 17 17 16 18 19 21 22 22 23 24 24 26 26 26 25 23 23 24 25 26 27 28 28 29 30 30 28 27 30 31 33
17 18 18 18 19 20 21 22 23 23 24 25 26 24 23 21 22 23 24 26 27 27 28 28 29 30 30 30 32 35 36 35 35
19 19 19 20 22 22 23 25 26 27 27 24 20 21 22 23 23 24 25 26 27 28 29 30 30 31 32 31 33 36 39 40 42
20 21 22 22 24 25 26 28 29 27 21 20 23 23 23 24 26 26 26 26 26 27 27 28 30 31 33 34 34 35 36 41 45
20 22 22 24 25 27 29 30 26 22 23 22 23 24 25 25 25 26 26 26 27 28 29 30 31 32 32 34 34 36 37 39 40
20 22 23 25 28 29 28 26 25 24 23 23 24 27 27 26 26 27 26 28 29 29 31 31 33 34 35 37 39 40 41 42 45
20 21 25 27 28 26 25 25 26 27 26 25 25 28 29 29 29 28 29 30 31 32 33 34 35 36 38 40 42 44 45 48 48
21 24 26 26 25 25 25 26 27 29 30 31 33 32 30 31 33 32 32 33 34 34 37 38 41 43 45 47 49 51 50 52 50
23 24 24 24 24 24 24 26 28 31 34 36 38 40 41 41 36 35 35 37 37 38 41 44 46 48 50 51 53 53 55 55 53
22 23 23 23 23 24 26 28 31 34 36 37 38 39 43 46 50 41 38 40 42 44 46 48 49 51 53 55 56 56 56 55 54
22 23 24 24 25 27 30 33 35 37 39 40 40 39 40 43 49 53 47 44 46 49 52 55 55 54 55 57 58 57 57 57 55

GFSFLT1_700_spd_006.txt.gz
Wind_Speed
2 1 1 2 3 4 5 7 7 8 8 8 10 11 12 12 12 13 13 14 14 15 16 17 17 17 16 17 17 17 17 16 17
2 2 2 2 2 3 4 5 6 7 8 8 9 10 12 12 13 14 15 15 16 16 17 17 18 18 18 18 18 18 18 18 19
6 4 1 1 2 3 4 5 6 7 7 8 9 11 12 14 15 16 17 17 17 16 17 17 17 18 18 18 18 18 18 18 19
8 7 5 5 4 4 4 5 6 7 7 9 10 11 12 14 15 17 18 17 18 18 17 18 19 19 19 19 19 19 19 19 20
7 6 6 6 7 8 8 8 8 8 8 9 10 11 12 13 14 15 17 17 17 17 19 20 20 21 22 22 22 22 22 22 21
8 8 9 9 10 10 10 9 9 9 10 11 12 13 14 15 16 17 19 19 19 19 20 20 20 19 20 22 24 24 23 24 24
10 11 11 12 12 11 11 11 10 11 13 15 15 16 17 18 19 21 22 23 23 23 23 23 23 24 24 24 25 23 24 24 24
13 14 14 14 14 14 13 14 15 14 15 17 18 19 19 20 21 22 24 24 25 25 25 26 27 28 28 28 27 25 26 24 25
13 14 14 15 15 16 16 16 18 18 18 19 20 21 21 23 24 24 24 23 23 24 25 26 26 28 29 30 31 31 30 29 30
15 16 15 16 16 17 18 19 21 20 20 22 23 24 24 23 21 20 21 21 23 24 25 25 26 27 29 29 31 31 33 33 33
17 18 17 18 18 19 21 21 22 21 22 24 24 21 19 19 20 21 22 23 24 25 26 27 27 29 29 30 31 31 32 34 38
19 19 19 20 21 21 21 22 23 23 23 20 18 20 21 21 22 23 24 25 25 26 27 27 28 29 29 31 31 32 32 35 37
19 20 20 21 21 22 23 25 25 24 20 20 21 21 22 22 24 25 25 25 26 26 27 28 29 30 31 32 33 34 33 33 35
19 20 20 21 22 24 26 26 23 20 20 21 22 22 23 25 26 26 26 27 26 28 30 30 31 31 31 32 34 35 35 36 38
19 19 20 22 25 26 27 25 23 21 21 21 22 23 25 27 28 28 27 27 28 31 31 33 34 34 35 36 37 38 39 41 44
17 18 22 25 26 25 24 24 23 23 23 23 24 26 28 30 30 30 29 30 32 32 35 35 36 38 38 40 42 44 45 46 49
17 20 24 25 25 24 24 24 24 25 25 27 29 30 29 30 31 31 33 33 34 35 36 37 38 40 42 44 47 49 50 52 53
19 21 23 24 25 25 25 25 25 27 29 32 35 38 40 42 37 33 32 35 36 36 37 39 41 44 46 49 51 52 54 55 56
19 21 22 24 26 26 26 27 28 31 33 35 38 40 44 46 49 44 38 37 38 40 41 44 46 49 51 53 54 55 55 55 57
19 22 25 27 28 29 29 30 32 34 37 39 41 41 41 42 46 49 44 40 41 45 48 52 54 55 56 57 59 60 60 59 59

GFSFLT1_700_spd_012.txt.gz
Wind_Speed
2 3 3 3 3 3 4 5 6 7 8 9 11 11 12 13 13 14 14 14 14 15 16 16 16 17 16 17 18 18 19 19 19
1 1 1 1 2 2 4 5 5 5 7 7 8 9 10 11 12 13 13 14 14 15 15 15 15 16 16 16 16 17 18 18 19
5 3 2 1 1 2 3 3 4 6 7 8 9 10 11 12 13 13 14 14 14 15 15 15 16 16 16 15 16 16 17 17 18
5 4 4 3 3 4 5 5 7 8 9 10 12 13 14 14 15 15 15 15 16 16 17 17 17 16 17 19 20 20 19 19 19
6 4 3 3 4 6 7 8 9 10 11 12 12 14 15 15 16 16 16 16 17 17 18 19 19 18 18 18 18 19 19 20 20
8 6 6 6 7 8 9 11 11 12 12 12 13 14 16 17 18 20 21 20 21 21 22 23 23 22 21 22 21 21 21 22 23
10 10 10 9 9 10 11 13 13 14 15 16 17 17 19 20 22 23 24 24 24 24 25 25 24 24 25 24 23 25 25 26 27
12 12 12 12 12 13 14 16 17 17 18 19 19 20 21 22 23 23 24 25 25 24 22 22 23 25 24 25 25 26 27 28 29
15 14 14 14 15 16 17 18 19 20 20 20 21 21 22 22 22 20 18 19 19 20 20 20 22 23 24 25 25 24 27 28 29
19 16 16 15 16 17 19 19 20 21 22 22 23 21 20 17 17 18 18 18 18 19 20 21 22 23 24 25 25 26 26 28 29
20 19 18 18 18 18 19 20 21 22 23 23 22 19 16 17 17 17 18 19 19 20 21 22 23 24 25 26 26 27 28 29 30
21 19 20 19 19 19 20 20 22 24 23 21 18 16 16 16 17 18 19 21 22 23 24 25 26 28 29 30 30 31 32 31 32
22 19 19 19 19 19 19 21 23 23 21 19 17 17 17 18 19 21 22 24 25 26 28 29 30 31 32 34 35 35 36 36 35
21 19 18 17 18 18 20 20 20 20 20 18 17 17 18 19 21 22 24 25 27 29 30 32 33 35 36 37 38 38 39 39 39
20 18 17 16 17 19 19 19 19 19 20 20 19 19 20 21 23 24 25 27 29 31 33 34 36 37 39 40 40 40 41 41 41
19 16 16 14 17 17 18 20 20 21 21 21 22 22 23 23 24 25 28 29 30 33 34 36 38 39 40 40 41 41 41 42 43
17 15 14 14 14 16 19 22 23 23 23 23 22 23 24 24 25 27 29 32 33 34 35 37 39 40 41 42 42 43 45 46 47
16 14 13 12 14 17 20 22 24 24 24 25 26 28 29 29 28 29 31 33 33 34 33 34 36 39 41 43 45 47 49 50 51
16 14 12 12 15 18 20 23 24 25 26 26 26 28 30 33 36 36 38 39 37 34 35 35 37 40 43 45 48 50 53 55 57
16 13 12 14 17 19 22 24 27 28 29 28 29 30 33 35 39 40 40 42 42 42 41 41 42 45 48 52 55 57 59 62 64

GFSFLT1_700_spd_015.txt.gz
Wind_Speed
3 3 3 3 3 3 4 4 5 6 7 8 9 10 11 12 13 14 14 15 14 15 15 15 16 16 17 16 16 16 16 17 17
1 1 1 2 3 4 4 5 5 6 7 8 9 9 11 12 13 14 15 14 15 16 15 16 16 15 15 15 15 16 16 16 16
6 4 3 3 3 4 4 5 6 7 8 9 9 10 11 12 12 14 15 14 15 16 16 16 17 17 15 15 16 17 17 16 16
6 5 4 4 5 5 6 8 9 10 11 12 12 12 13 14 14 15 16 15 16 16 17 17 17 16 16 15 15 17 18 17 16
8 7 6 6 7 7 8 9 10 11 12 13 13 14 14 15 16 17 16 17 18 19 20 20 20 20 20 19 19 19 18 18 18
10 10 9 8 9 9 10 11 12 12 13 14 15 17 18 18 19 21 20 21 22 22 22 22 21 22 22 21 21 22 23 23 23
12 12 12 11 11 11 12 13 14 15 16 16 17 19 20 21 22 22 23 23 24 25 23 22 23 22 21 20 21 22 23 24 26
14 14 14 14 14 14 14 16 17 17 18 19 21 21 21 23 24 22 24 24 23 21 18 19 19 19 20 20 19 21 22 23 25
16 16 16 17 16 17 17 18 19 18 20 21 22 23 24 24 24 20 18 17 18 18 19 18 18 20 20 21 21 21 22 23 24
17 18 18 18 19 18 19 20 21 20 21 22 23 23 23 22 20 17 18 16 17 18 18 18 19 21 22 22 22 23 23 23 24
19 19 20 20 21 20 20 21 22 22 22 23 23 23 21 19 18 19 17 16 17 18 20 20 22 23 25 25 25 26 27 27 28
20 21 21 20 21 21 21 21 22 23 23 23 21 19 19 17 18 18 17 17 19 20 22 23 24 26 27 28 29 30 30 32 32
22 22 22 22 21 20 20 21 22 23 22 20 19 18 18 17 18 18 19 20 22 22 24 26 27 29 31 33 33 34 35 36 36
25 23 22 21 20 19 19 20 22 21 20 19 19 19 19 19 20 20 22 23 25 26 27 29 31 32 34 36 36 37 38 38 39
26 24 22 20 19 18 18 19 19 20 21 21 21 21 21 22 23 24 25 26 28 29 30 32 34 35 36 38 38 39 39 39 39
26 24 21 19 17 17 16 17 18 20 22 23 24 24 24 25 25 26 27 29 30 31 33 35 37 39 39 39 39 40 40 40 41
26 22 19 18 16 15 15 16 17 19 22 23 24 24 27 24 26 28 29 30 32 35 36 38 40 41 41 41 41 41 42 43 44
24 20 18 17 15 13 14 15 18 21 22 24 26 27 27 27 28 29 30 32 34 36 38 38 39 40 40 41 41 43 43 45 47
23 20 19 17 14 14 14 16 19 22 25 26 27 28 30 32 32 33 34 36 37 38 38 36 36 37 39 41 43 45 46 49 51
27 22 20 17 15 15 16 19 21 24 27 29 31 32 33 35 36 35 36 40 41 44 45 44 42 42 44 47 50 52 54 55 56

GFSFLT1_700_spd_018.txt.gz
Wind_Speed
5 4 3 2 3 2 2 2 3 4 5 5 7 8 10 10 10 11 11 11 12 13 13 14 15 15 15 14 14 14 14 14 14
7 4 3 3 3 3 4 4 4 5 6 7 8 9 10 11 12 12 13 12 14 14 14 15 15 15 15 14 12 12 13 13 13
9 7 7 6 6 6 6 6 7 7 8 8 9 10 11 12 11 13 11 13 13 14 14 15 15 15 15 16 13 12 14 14 14
10 9 8 7 7 8 8 9 9 9 10 10 11 11 12 13 14 15 13 14 14 14 15 15 16 17 16 15 15 14 13 14 14
11 11 9 9 10 9 9 10 10 10 11 11 11 12 13 15 16 15 16 17 18 18 19 19 19 20 19 18 18 18 19 19 19
10 12 12 12 12 12 11 11 12 12 12 13 13 14 16 17 19 17 18 19 20 20 19 20 20 21 20 20 19 20 21 21 22
10 11 12 13 14 14 14 14 14 15 14 15 16 16 17 19 20 18 20 21 21 21 19 18 17 17 17 15 16 17 18 20 21
10 12 13 14 15 16 17 16 17 17 18 18 20 18 19 22 21 20 21 21 18 16 16 15 15 16 17 16 16 17 18 19 20
12 13 14 15 16 18 19 19 18 19 19 19 20 20 21 23 21 20 18 17 17 16 15 15 15 16 16 17 17 17 18 20 20
17 14 15 16 19 20 20 21 21 20 21 21 21 21 22 23 21 17 17 16 16 15 15 15 16 17 17 18 20 20 20 21 23
19 18 17 16 18 21 22 22 22 22 22 22 23 22 22 22 21 17 17 17 16 15 16 17 18 19 20 21 22 23 24 24 26
20 20 20 18 20 21 22 23 22 23 22 23 22 21 21 19 20 18 16 17 17 18 18 19 20 21 22 24 25 26 27 28 30
22 22 22 21 21 20 22 22 22 22 22 21 21 19 19 19 19 19 19 19 18 20 21 22 23 25 26 27 29 30 31 32 33
23 23 23 23 22 21 21 21 21 21 20 20 19 20 20 20 21 21 22 22 23 24 24 25 27 28 29 31 33 34 35 35 36
26 26 25 26 23 21 20 20 20 19 19 19 19 20 21 22 23 24 26 25 25 27 28 29 31 31 32 34 35 37 38 38 38
30 28 26 27 23 21 20 18 17 17 17 18 20 19 21 22 23 25 27 29 29 29 30 32 34 35 36 38 39 39 39 38 39
31 29 27 25 23 21 18 17 15 15 16 17 19 21 22 22 23 26 28 29 31 32 34 34 36 38 39 40 41 41 40 40 41
30 29 27 24 22 20 18 16 14 14 17 19 21 25 26 27 27 28 29 31 32 33 35 36 38 40 40 40 40 40 41 40 43
30 28 25 21 21 20 18 16 15 16 18 20 24 26 29 31 30 31 32 33 34 36 37 37 38 39 39 38 38 40 42 43 46
31 28 24 23 21 20 18 17 17 19 21 24 27 30 32 35 36 34 33 34 36 39 40 41 41 41 40 40 40 43 45 46 48

GFSFLT1_700_spd_021.txt.gz
Wind_Speed
8 5 3 3 2 2 2 2 3 3 3 4 5 6 6 7 8 9 9 10 11 11 12 12 12 12 12 11 12 11 10 10 10
11 9 6 4 3 3 3 4 4 4 4 4 5 6 7 9 9 9 8 9 11 11 11 11 11 12 12 13 12 11 11 10 10
10 9 8 7 6 6 5 5 5 4 4 5 6 8 9 9 10 11 11 11 11 12 11 11 12 12 13 12 12 12 9 12 12
11 10 9 8 8 7 7 7 7 7 8 8 9 9 11 11 11 11 12 12 13 14 14 14 15 15 15 16 16 15 14 14 13
9 10 10 11 10 10 10 9 9 10 11 11 11 11 13 12 13 12 15 15 15 15 15 17 17 17 17 17 17 18 18 18 18
6 7 9 10 11 12 12 12 12 12 13 14 13 14 16 14 13 14 15 16 17 16 16 18 18 18 16 15 15 16 17 18 19
8 9 9 10 11 13 14 14 14 14 14 15 15 16 19 16 14 15 16 18 18 17 15 14 13 12 11 12 12 13 14 16 17
9 8 8 10 12 14 14 16 17 17 18 18 18 18 19 17 17 17 18 18 17 14 14 13 13 12 11 12 12 13 13 14 16
14 13 11 12 11 13 15 16 18 19 19 19 20 21 22 18 18 17 18 17 16 15 14 14 14 13 12 13 14 14 15 15 16
18 15 16 15 13 14 16 17 19 20 20 20 20 21 23 20 18 16 16 16 16 16 15 15 15 15 15 15 16 16 17 18 19
18 17 21 20 18 17 17 17 18 20 21 21 21 21 22 20 18 16 16 16 17 17 17 17 17 17 17 18 18 18 19 20 21
21 22 21 20 19 20 20 20 19 20 21 21 21 21 20 20 18 16 15 17 17 18 19 19 20 20 20 21 22 22 23 24 25
22 23 20 22 21 22 23 22 21 20 20 20 20 19 19 20 18 17 17 17 18 20 21 22 22 23 24 25 26 27 28 29 29
23 23 22 23 23 23 24 23 22 20 19 18 18 18 18 19 19 19 19 21 21 21 22 24 26 26 28 29 30 32 33 33 34
26 25 24 25 26 26 25 24 22 19 18 16 16 16 17 18 19 19 19 21 22 24 24 27 28 30 31 33 34 35 36 37 38
29 29 28 25 27 27 25 24 21 18 17 15 14 15 16 18 20 21 22 23 25 25 27 28 30 31 34 35 36 37 38 38 38
30 29 28 26 26 25 24 23 20 18 16 14 14 15 16 18 20 23 24 26 27 28 29 30 31 33 36 37 38 39 40 40 39
28 27 26 26 24 24 24 22 20 18 16 15 16 18 20 22 23 25 27 29 30 31 32 33 34 36 37 38 39 40 39 39 40
29 27 27 28 26 23 23 22 21 19 18 18 19 20 23 25 28 29 31 31 33 34 34 36 38 39 40 39 38 38 39 40 41
30 28 29 29 28 22 23 23 21 20 20 20 22 24 27 29 31 31 32 33 35 36 36 38 40 41 41 40 39 39 40 42 44

GFSFLT1_700_spd_027.txt.gz
Wind_Speed
8 6 5 5 4 4 4 4 4 4 4 5 5 5 6 6 7 8 9 10 11 11 9 9 9 9 8 8 8 7 6 5 5
8 9 9 9 8 8 7 7 6 6 6 6 7 6 6 7 8 7 9 10 9 9 9 9 9 9 8 7 7 5 6 7 7
11 10 9 8 8 7 7 7 7 7 8 8 8 8 9 8 9 9 9 11 11 9 10 11 11 10 10 11 11 9 8 4 6
9 9 10 10 10 9 8 8 8 8 8 8 9 9 10 11 12 12 12 12 11 12 13 14 15 14 14 14 14 13 12 12 12
6 8 9 9 9 9 10 10 10 9 9 10 9 10 11 12 13 14 14 14 13 14 14 16 16 16 17 17 16 16 15 15 15
2 3 4 5 7 8 9 10 11 11 11 12 11 11 11 12 13 15 16 15 15 15 16 17 17 15 15 16 14 14 14 13 15
6 6 5 4 5 6 8 10 11 13 13 13 13 13 13 14 14 15 16 16 16 16 16 15 14 13 12 12 13 13 13 13 14
10 10 8 7 7 8 9 10 12 14 15 15 15 15 15 15 16 17 17 17 16 16 15 14 13 12 12 12 12 13 13 14 14
13 13 12 11 10 10 12 12 13 14 16 17 17 18 17 16 16 16 16 16 15 15 15 15 14 14 13 13 13 14 15 16 16
16 16 15 14 14 13 14 15 15 16 18 18 18 18 18 17 17 16 16 15 15 15 15 15 16 15 15 16 16 17 17 18 18
21 18 17 17 17 16 16 17 17 18 19 20 20 20 19 17 17 17 17 16 15 15 15 16 18 18 19 19 19 20 20 21 21
23 20 20 20 19 18 18 18 19 19 20 21 21 20 19 18 17 17 16 16 16 17 17 18 20 21 22 22 23 23 24 25 25
23 22 22 21 19 20 19 20 20 21 22 23 22 20 19 18 16 15 15 15 15 16 17 18 20 22 24 26 27 28 28 29 30
22 22 21 19 20 22 22 22 22 23 24 24 22 20 18 16 15 15 14 14 15 16 18 19 22 23 25 26 28 30 30 31 31
22 23 22 21 24 25 25 24 24 24 24 23 22 20 19 16 15 15 15 15 17 18 20 22 24 26 27 29 30 32 34 34 34
26 26 24 25 26 26 26 25 24 24 23 23 22 21 19 18 16 16 16 17 19 21 23 25 27 28 29 30 32 34 35 37 38
27 26 23 24 25 26 26 25 24 24 23 22 22 21 21 19 18 18 19 20 22 24 26 29 30 32 33 34 35 36 38 39 40
29 28 26 25 25 26 26 24 25 24 24 23 23 23 22 21 20 21 22 23 24 27 30 32 34 35 36 38 39 40 40 41 41
32 30 29 27 27 26 26 26 25 25 23 24 24 24 24 24 24 24 25 26 27 29 32 36 38 40 41 42 43 43 43 42 42
33 33 32 30 31 30 30 29 28 24 22 25 26 27 27 27 27 27 27 28 29 32 35 39 42 44 45 46 46 46 45 44 43

GFSFLT1_700_spd_030.txt.gz
Wind_Speed
10 9 8 7 7 7 7 7 7 8 8 7 6 5 4 4 5 5 6 8 8 9 9 9 10 11 8 8 7 5 5 4 5
11 10 10 10 9 9 9 9 9 8 8 7 7 6 5 5 5 6 7 8 8 9 9 9 8 9 10 8 8 5 3 5 6
11 11 11 10 10 9 9 9 9 8 8 7 7 6 6 6 6 6 8 9 9 10 10 11 10 10 10 11 12 10 10 7 2
8 10 10 10 11 11 11 11 11 11 10 9 8 8 9 9 9 9 9 10 10 11 12 13 12 11 12 12 14 14 13 13 12
3 4 6 7 8 9 10 11 11 10 10 10 10 10 10 10 11 11 12 11 12 12 14 15 13 12 13 14 14 14 14 14 15
2 1 1 2 3 5 6 8 9 10 11 11 11 12 12 13 13 13 12 12 12 13 14 15 14 12 13 12 11 10 10 11 12
7 5 5 4 3 4 5 6 7 8 10 12 13 13 13 14 14 14 14 14 14 13 15 13 13 13 12 12 11 11 10 11 11
11 10 9 8 7 7 7 7 8 9 10 11 13 14 14 15 15 14 14 14 14 14 14 13 12 12 12 12 12 12 12 12 12
15 14 12 11 12 11 11 10 10 11 11 13 14 15 16 16 16 15 15 15 13 13 13 13 13 12 13 13 13 13 13 14 14
19 18 16 15 14 15 14 14 13 13 14 14 15 16 17 16 16 16 15 15 15 14 13 13 13 14 14 14 16 16 16 17 17
21 21 20 19 17 18 17 16 16 15 16 16 17 18 19 18 17 15 15 14 14 14 14 14 15 15 15 16 17 18 19 19 20
23 24 23 22 22 21 20 18 18 18 17 18 19 20 20 19 17 16 14 13 13 13 14 15 15 16 17 18 18 19 21 22 24
24 24 24 25 24 23 22 19 19 20 20 20 21 20 19 18 17 16 14 14 13 13 13 14 16 17 18 19 20 21 21 23 24
24 24 25 25 24 23 21 20 21 22 23 23 22 20 18 17 16 16 15 14 13 14 15 17 18 19 21 23 24 25 26 26 27
23 24 25 24 23 23 22 23 24 24 24 24 23 21 19 17 17 16 15 15 14 15 17 19 20 23 24 26 28 29 30 31 32
26 25 25 25 25 25 26 24 24 25 24 24 23 21 20 19 18 18 17 17 17 18 19 20 22 23 25 27 29 31 33 34 36
30 27 28 29 28 28 26 26 26 24 24 23 23 22 21 21 20 20 20 20 20 21 21 22 24 26 27 29 31 33 35 36 38
34 32 30 31 30 28 28 26 25 24 24 23 23 24 23 22 22 22 22 23 24 24 24 25 26 28 30 33 35 36 37 39 40
37 35 33 33 32 29 28 28 25 25 24 25 25 25 25 25 25 25 26 26 26 27 27 28 30 32 35 38 41 42 42 43 43
39 36 34 32 33 30 29 31 27 28 26 26 24 25 26 27 28 28 28 29 29 29 30 32 34 36 39 43 45 46 46 46 46

GFSFLT1_700_spd_033.txt.gz
Wind_Speed
12 11 11 10 9 9 10 10 9 8 8 7 6 5 4 2 2 2 3 4 6 7 7 8 8 8 6 6 7 6 6 4 4
12 12 11 11 11 10 10 10 9 8 8 7 6 5 4 4 5 5 5 5 5 6 8 9 9 8 8 8 7 6 5 3 4
11 11 12 12 13 12 12 11 10 9 8 7 6 6 6 6 6 6 7 7 8 8 9 10 9 9 10 10 9 9 9 8 5
6 7 9 9 10 11 10 11 10 10 9 9 8 7 7 7 7 8 8 8 9 10 11 11 10 11 12 12 11 10 11 11 12
2 3 4 4 6 7 7 8 8 9 9 9 10 10 10 10 10 10 10 10 11 12 13 12 10 11 13 13 13 12 13 13 14
4 2 1 1 1 2 2 3 4 5 7 8 9 10 10 11 11 11 11 11 12 12 13 12 11 10 10 10 9 9 8 9 10
8 7 6 6 5 4 3 2 2 3 5 7 8 10 10 11 11 11 11 11 11 12 12 12 11 10 9 8 8 8 8 8 9
11 12 11 10 10 9 8 7 6 6 6 6 9 11 11 11 12 12 11 11 11 11 10 10 10 10 9 9 9 9 9 9 9
14 15 15 14 13 13 13 12 11 10 9 9 10 12 13 13 13 13 13 12 11 11 11 10 10 10 9 9 10 10 10 11 12
18 17 18 18 17 17 16 16 15 14 12 12 12 13 15 16 15 15 14 13 12 11 10 9 9 9 10 10 11 12 12 13 14
23 21 21 22 21 21 20 19 18 17 15 14 14 15 17 18 17 16 14 12 11 10 10 10 10 9 9 10 11 12 13 15 16
25 25 25 25 24 23 22 22 20 19 18 16 16 18 19 19 18 16 14 13 11 10 9 8 8 9 10 10 11 13 14 15 17
27 27 27 27 26 25 24 24 22 21 20 19 19 20 20 20 18 16 15 13 12 11 10 10 10 11 12 14 15 16 16 17 18
28 29 29 28 27 26 27 25 24 23 21 21 22 21 21 20 19 18 16 15 14 13 12 12 13 13 15 16 18 19 20 20 21
30 30 29 26 26 27 26 25 25 24 24 23 23 22 22 21 20 19 18 17 16 15 15 15 15 16 17 19 20 21 23 24 25
33 31 30 27 26 26 26 26 27 27 25 24 24 23 23 22 21 20 20 19 19 18 18 18 18 18 19 21 23 24 25 26 28
34 34 33 31 28 27 28 30 30 28 26 25 25 24 23 23 23 22 22 22 22 22 21 21 21 21 22 23 24 26 28 31 33
35 35 37 34 34 30 31 33 32 29 27 27 26 25 25 24 24 24 24 25 26 26 25 24 24 25 26 27 28 29 31 34 37
39 38 37 36 37 36 32 32 33 32 29 29 28 27 26 26 26 26 26 27 29 29 28 28 28 29 30 31 32 33 36 39 41
46 42 41 41 40 37 35 34 33 31 29 29 28 29 26 25 26 26 28 30 31 32 31 31 31 33 34 35 35 37 40 44 43

GFSFLT1_700_spd_036.txt.gz
Wind_Speed
10 10 10 9 9 8 9 8 7 7 6 5 4 3 3 2 2 2 2 3 5 5 6 6 7 7 6 6 5 4 4 5 4
10 11 10 10 10 9 9 8 8 7 6 6 5 4 3 3 3 4 5 6 7 8 8 9 8 9 8 8 9 7 3 3 2
8 9 10 11 11 11 10 9 8 7 7 6 5 4 3 4 4 5 5 7 8 9 10 9 10 11 10 11 11 11 10 8 6
5 6 7 7 7 8 7 7 7 7 7 6 6 6 5 5 5 6 7 7 9 10 10 10 10 11 11 11 12 12 13 12 12
1 3 3 3 3 3 4 4 5 5 5 6 6 6 6 6 7 7 8 8 9 10 10 9 9 10 11 11 11 13 13 14 14
6 4 3 3 2 2 0 1 2 3 4 5 6 7 8 8 8 8 9 9 10 10 10 9 9 9 9 9 9 9 9 9 10
9 9 8 7 7 7 6 5 5 4 4 5 6 8 10 10 10 10 10 10 11 11 10 9 9 8 7 7 7 7 7 7 8
11 12 12 12 12 11 11 11 10 9 9 8 8 9 11 12 13 13 13 12 11 11 10 10 9 8 8 7 7 6 7 7 7
17 16 16 16 16 15 15 15 14 13 13 13 12 12 12 13 14 14 14 13 12 11 10 9 8 8 7 7 7 7 8 8 9
22 22 21 19 20 20 19 18 17 17 16 16 15 14 14 15 16 16 16 14 12 11 9 8 8 7 7 7 7 8 9 10 11
27 27 26 24 23 23 22 21 22 20 20 19 18 16 16 17 18 18 16 14 13 11 10 8 7 6 6 6 7 8 9 10 11
30 30 29 28 28 27 25 25 25 24 23 22 21 19 19 20 20 19 17 15 13 11 11 9 8 7 7 7 8 9 10 12 13
32 32 32 32 31 30 28 29 27 26 26 25 23 21 21 22 22 21 19 17 15 14 13 12 11 10 10 10 10 11 12 13 14
32 33 34 34 34 32 31 31 30 29 28 26 25 24 24 24 24 22 21 18 17 16 16 15 14 14 13 13 13 13 14 15 15
35 34 35 35 36 35 33 32 31 31 29 27 27 26 26 26 25 24 23 21 20 19 19 19 18 18 17 17 17 17 18 18 19
37 36 37 36 34 34 33 33 32 31 30 29 29 28 28 27 26 25 25 23 22 22 23 22 22 22 21 21 20 20 21 22 23
35 35 35 36 35 34 35 33 30 30 30 31 31 31 30 29 27 27 26 26 25 25 26 26 26 25 26 25 25 24 25 27 27
37 38 38 37 36 37 37 35 33 32 32 33 34 33 32 29 29 28 28 28 28 28 29 30 29 29 30 30 30 29 30 30 31
44 43 42 40 38 38 38 38 35 36 35 35 35 34 33 32 31 30 30 30 30 30 31 32 33 33 34 35 35 34 34 34 35
49 49 48 46 43 40 40 40 40 41 40 36 34 33 32 31 33 32 29 30 31 31 33 35 36 37 38 39 40 39 38 38 38

GFSFLT1_700_spd_042.txt.gz
Wind_Speed
9 9 9 8 8 8 8 7 8 7 6 5 5 4 3 3 3 3 4 5 6 6 6 6 7 6 6 5 6 6 6 6 5
10 11 10 9 9 9 8 8 8 7 7 6 5 5 6 6 6 6 6 7 7 7 7 8 8 8 7 6 7 6 5 2 4
10 9 9 9 9 9 9 9 9 8 8 8 7 7 7 7 7 7 7 8 9 9 8 8 9 9 9 8 8 8 8 7 6
6 6 8 7 7 7 7 7 7 7 7 7 7 8 8 9 9 9 9 10 10 9 9 9 9 9 9 9 10 9 9 9 9
2 3 4 4 4 4 4 4 5 5 5 6 6 7 8 9 10 11 11 11 11 10 9 9 9 10 9 9 9 9 9 8 8
3 5 5 4 3 4 5 4 4 4 5 5 6 7 8 10 11 12 12 12 13 13 11 10 9 9 9 8 8 8 7 7 7
7 7 7 8 8 9 8 9 8 8 8 8 9 9 10 11 13 14 14 15 15 14 13 12 10 9 8 8 8 7 7 7 6
12 13 12 11 11 12 13 13 13 13 13 13 13 13 14 13 13 14 14 15 17 16 15 14 12 10 10 8 8 8 7 7 7
18 17 18 17 16 15 15 16 16 16 17 17 17 17 17 18 16 14 16 17 17 16 15 14 13 11 10 9 8 8 8 7 8
23 23 22 22 22 21 20 20 18 18 20 20 21 21 21 22 19 17 18 19 19 17 16 14 13 12 11 9 8 7 7 7 7
26 27 27 26 27 27 25 25 25 23 22 23 23 23 24 25 22 21 20 21 21 19 18 15 15 13 12 10 9 8 8 8 8
29 31 31 29 29 30 31 29 29 29 27 26 26 27 26 27 28 23 22 23 23 20 19 17 17 15 14 13 12 11 10 11 11
28 30 32 31 30 32 33 33 32 31 31 31 31 30 29 29 29 29 25 23 23 22 21 20 19 18 17 16 15 14 13 13 13
30 30 32 30 30 30 32 33 33 33 33 33 33 33 32 31 31 30 29 25 25 24 22 22 22 20 20 19 18 17 17 16 16
35 35 36 37 36 35 36 35 32 32 33 34 35 34 35 34 33 31 30 29 28 25 24 24 23 23 23 22 22 21 20 20 20
34 36 36 38 39 36 36 36 34 33 33 34 35 36 36 36 34 33 32 29 30 29 25 26 25 25 26 25 25 25 25 25 25
41 38 38 39 41 41 38 37 35 34 36 34 33 37 37 35 34 34 33 31 31 32 28 27 27 27 28 28 28 28 28 29 29
46 44 41 41 41 41 42 39 37 37 36 36 36 38 39 35 34 35 34 34 33 33 33 30 30 28 28 30 31 31 31 33 32
45 49 48 46 44 45 44 43 42 41 39 38 37 39 40 39 38 35 35 36 37 36 34 32 29 29 31 31 33 33 34 34 35
36 40 47 50 49 49 48 48 49 47 45 43 42 42 42 42 41 39 37 37 37 42 37 33 30 25 37 36 35 33 34 36 37

GFSFLT1_700_spd_045.txt.gz
Wind_Speed
12 11 11 10 10 10 10 9 9 8 8 8 8 7 7 7 7 7 6 6 7 7 7 7 8 8 7 7 6 6 5 7 7
11 12 12 11 11 11 10 10 10 9 9 9 9 8 8 8 7 7 8 8 8 8 8 7 7 7 7 7 7 6 4 1 3
8 9 10 9 9 9 9 9 9 9 9 9 9 9 9 10 9 10 10 10 10 9 9 9 9 10 9 7 7 7 7 6 6
6 7 7 7 7 7 8 8 8 8 8 8 9 9 9 10 10 11 12 12 11 11 11 11 10 9 10 9 8 8 7 8 8
5 3 4 4 4 4 5 6 6 7 7 8 9 10 11 12 12 12 11 12 12 11 11 12 12 11 10 10 10 9 8 8 7
2 3 4 5 5 5 5 5 5 6 7 8 9 9 11 12 13 14 15 14 13 12 11 11 11 11 11 11 10 9 8 8 7
6 5 5 5 7 8 8 8 8 9 10 11 11 11 12 14 14 15 16 17 17 15 14 12 11 11 10 10 10 8 7 7 7
12 11 10 10 10 10 11 11 11 12 14 14 14 14 13 14 15 15 16 18 19 19 17 14 13 12 11 11 10 9 8 7 7
16 16 16 16 16 16 15 15 15 15 15 17 18 19 18 17 17 16 16 18 19 19 18 16 14 14 12 11 10 9 8 8 7
20 21 21 21 21 21 21 20 20 20 20 19 20 21 22 21 21 20 19 19 20 20 19 17 15 15 13 12 10 9 9 8 7
23 24 24 25 25 25 24 25 25 24 24 24 23 23 25 22 22 23 22 21 21 21 20 18 17 16 15 14 12 11 10 10 9
26 26 25 27 29 29 30 30 29 28 27 27 27 26 28 27 24 24 24 23 23 22 22 20 18 18 17 16 14 13 13 13 12
28 28 26 26 26 27 29 29 29 29 28 29 30 30 30 31 28 27 26 26 25 24 23 22 20 20 19 19 18 17 17 16 15
29 30 29 29 28 28 28 29 28 28 28 29 31 31 32 32 33 30 29 28 27 26 25 24 22 21 21 21 21 20 20 19 19
32 30 32 31 32 33 33 34 34 34 33 33 32 32 32 33 32 34 31 30 29 28 27 26 24 23 23 23 23 24 24 23 23
37 36 34 35 34 32 33 35 36 34 32 33 35 34 32 33 33 34 34 31 30 29 29 28 27 26 25 26 26 26 27 26 26
42 41 38 37 38 37 36 36 37 36 34 35 34 36 34 33 32 33 33 33 33 31 29 29 30 29 28 28 28 28 28 29 29
42 44 44 42 42 42 42 41 40 38 37 37 36 38 38 35 33 33 34 33 34 33 31 31 29 31 31 30 29 28 29 31 31
36 38 42 45 44 45 45 46 44 43 42 42 41 41 41 40 39 35 36 36 36 34 33 32 31 36 37 35 32 30 28 30 33
33 36 38 39 40 40 42 45 45 47 46 46 45 45 44 45 45 44 40 40 39 37 39 34 36 37 39 39 35 32 33 43 39

GFSFLT1_700_spd_048.txt.gz
Wind_Speed
12 12 12 11 10 10 11 10 10 10 10 10 10 9 9 9 9 8 9 9 9 8 8 8 8 8 7 8 7 5 5 6 5
10 11 11 11 11 12 12 12 12 12 12 12 11 11 11 10 11 10 10 10 10 10 10 10 10 9 9 8 8 7 5 3 1
9 9 9 9 10 10 10 11 11 11 11 11 11 12 12 11 11 11 12 12 12 12 11 10 10 10 8 9 9 9 9 7 7
8 7 7 7 7 8 9 9 9 10 11 11 12 12 13 14 16 16 15 14 13 13 13 12 12 11 10 9 9 8 9 9 9
6 6 5 5 5 6 5 6 7 8 9 10 11 11 12 13 13 15 17 17 16 14 14 14 12 11 10 10 9 8 7 7 8
6 3 2 2 3 4 4 5 6 7 8 10 10 11 11 12 14 15 16 17 17 17 15 14 14 13 11 10 10 9 8 7 7
9 7 6 6 5 5 4 6 6 8 9 10 10 11 12 13 14 16 17 17 18 18 17 15 14 13 12 11 10 10 9 8 7
13 13 13 12 11 11 10 9 9 11 12 12 13 13 13 14 15 15 16 17 18 19 19 18 15 13 12 11 10 10 9 9 8
17 17 17 16 16 16 16 16 16 16 16 16 16 16 15 15 16 17 17 17 17 19 19 20 18 16 14 12 12 11 10 9 9
19 19 19 19 19 19 20 21 21 22 22 22 21 21 20 19 18 19 19 20 19 19 20 20 19 18 16 14 13 12 11 10 9
21 21 22 22 22 23 24 25 26 25 26 26 25 25 25 24 23 22 23 23 22 22 21 20 20 19 18 16 15 14 13 12 11
21 22 22 23 24 24 26 27 27 27 27 27 27 27 28 28 26 25 25 25 25 24 24 23 21 20 19 18 17 16 16 15 14
23 24 24 26 27 27 27 26 26 26 26 26 26 27 30 30 28 28 27 26 26 26 26 25 24 22 20 20 20 19 19 18 17
26 27 27 27 27 28 29 30 30 30 29 30 30 30 31 32 31 30 29 28 28 28 28 26 26 24 23 22 22 22 22 22 21
29 29 29 28 29 29 30 30 31 32 31 32 33 33 33 34 32 31 31 30 30 29 29 29 28 27 26 24 24 24 25 25 25
34 34 34 34 34 32 32 33 33 33 32 35 36 35 33 33 32 32 31 30 30 29 29 29 30 29 28 28 27 27 27 28 28
40 41 41 41 40 37 35 36 36 36 35 37 37 41 39 35 32 32 32 31 30 30 30 30 30 31 31 30 30 29 30 30 31
41 42 44 45 45 45 41 38 40 40 40 39 39 43 43 40 35 35 35 34 33 31 32 32 32 33 33 31 31 29 31 33 34
38 38 39 40 40 40 41 39 40 41 43 42 43 44 43 45 44 41 38 38 38 37 35 35 35 34 32 34 35 34 41 36 37
34 35 36 38 40 41 40 40 39 39 41 43 41 47 42 45 46 49 45 42 42 42 40 44 40 38 35 41 40 39 39 43 45

GFSFLT1_700_spd_051.txt.gz
Wind_Speed
14 15 15 14 14 14 14 14 15 15 15 14 14 13 14 14 13 13 14 14 14 13 13 12 12 11 11 11 10 6 5 5 3
13 12 13 13 13 14 14 14 14 14 13 14 13 13 14 14 15 14 14 15 15 14 14 13 12 11 10 10 9 9 8 7 5
14 11 11 11 12 12 12 13 14 14 14 14 14 14 15 15 16 17 17 17 16 15 14 13 13 13 12 12 10 10 9 9 9
15 15 12 9 8 8 9 9 10 10 11 11 12 12 13 14 15 16 17 17 17 16 15 15 13 12 11 10 10 10 10 10 10
10 9 10 9 9 8 6 5 6 7 8 9 10 10 11 12 14 15 16 17 18 18 18 16 15 13 13 11 10 9 8 8 9
5 7 7 7 6 6 4 4 6 7 8 8 9 10 10 11 12 14 15 16 17 18 19 19 16 14 13 12 11 10 9 8 7
9 8 7 7 7 7 7 6 6 6 7 8 9 11 11 11 12 13 14 15 16 17 18 19 19 17 15 13 12 12 10 8 8
13 13 13 12 12 13 13 12 12 13 12 13 12 12 12 13 14 14 15 16 17 18 19 19 19 19 17 15 13 12 11 9 9
16 16 16 16 16 17 17 17 17 17 17 17 18 18 17 17 17 18 18 18 18 18 19 20 20 20 18 16 14 14 12 11 9
17 17 17 18 18 19 20 20 20 20 21 21 21 22 22 22 22 22 22 21 20 20 19 20 21 21 20 18 16 15 13 12 10
19 19 19 20 20 21 21 22 22 22 23 24 24 24 24 25 24 24 25 25 23 22 21 21 21 21 21 19 18 17 15 14 13
19 19 19 19 21 22 22 23 23 23 24 24 25 25 26 26 26 26 27 27 26 25 24 23 22 22 22 21 20 18 18 17 16
21 21 21 22 23 23 24 25 25 25 26 25 25 25 26 27 26 26 27 28 28 28 27 26 25 24 24 23 21 21 20 20 19
25 26 26 27 27 27 25 24 26 27 28 30 32 33 33 32 30 29 30 30 29 29 29 29 28 27 26 26 24 23 23 23 23
30 30 29 29 29 27 27 29 29 31 30 31 32 33 34 34 33 30 29 29 29 29 29 29 29 29 28 28 27 26 25 25 26
31 32 31 31 33 34 34 35 34 33 33 34 35 35 36 36 32 31 31 29 28 28 28 28 30 31 32 31 31 29 28 28 28
34 35 36 38 39 38 37 37 38 38 36 38 38 42 41 38 35 33 32 30 31 30 29 30 31 33 34 34 34 33 33 31 31
37 38 40 40 43 43 42 42 42 40 38 37 39 44 46 44 41 37 36 35 34 34 34 34 34 35 34 35 36 37 38 36 34
36 38 39 40 41 41 40 40 40 40 38 37 37 40 43 44 49 43 42 41 37 38 39 40 41 41 40 36 37 40 41 42 39
35 35 35 36 37 37 39 39 37 38 39 40 38 37 39 42 44 48 42 41 39 41 44 47 49 47 44 42 45 43 48 47 43

GFSFLT1_700_spd_054.txt.gz
Wind_Speed
14 15 16 17 17 17 18 17 17 17 17 16 16 16 15 15 15 14 14 14 14 14 14 14 13 12 13 12 9 8 7 7 6
14 14 14 14 15 15 15 15 15 16 16 16 16 16 16 16 16 16 17 17 17 16 14 14 13 12 12 11 10 9 8 7 6
18 15 13 12 12 12 12 12 12 12 13 13 13 13 13 14 15 16 17 17 18 17 17 16 14 13 12 12 11 10 9 9 8
14 15 15 15 14 12 11 11 11 11 11 11 11 12 12 13 14 15 16 17 17 18 18 18 16 14 12 12 11 11 10 10 9
8 9 10 10 11 10 10 11 12 12 12 11 11 11 12 13 14 15 15 15 15 16 17 18 18 17 15 13 12 10 10 10 9
3 5 6 6 7 7 6 4 4 5 6 8 9 9 9 10 11 13 14 15 15 17 17 18 18 17 15 14 13 12 10 10 9
9 8 7 6 7 7 8 8 8 8 8 8 8 9 9 10 10 11 13 14 16 16 16 16 16 17 17 15 13 12 11 10 10
12 12 12 11 11 11 12 13 12 13 14 14 14 14 14 15 15 15 16 16 15 16 16 17 17 17 17 17 15 14 13 12 11
13 14 13 14 14 15 15 16 17 18 18 18 18 17 17 17 17 20 19 19 19 19 19 18 18 18 17 17 16 15 13 12 11
14 15 15 16 16 17 18 18 19 20 21 21 20 20 20 20 20 19 22 22 22 22 21 21 20 20 19 18 17 16 15 14 13
16 17 17 18 19 20 20 20 21 22 22 22 22 22 22 22 22 23 23 24 24 25 24 23 22 21 21 20 18 17 16 15 15
18 19 18 17 19 19 20 21 22 23 24 22 22 22 23 23 23 24 24 25 25 25 26 25 24 23 22 22 22 20 18 17 17
18 18 19 21 22 23 23 24 24 24 25 24 24 26 26 26 25 26 26 26 26 26 27 27 27 26 25 25 25 24 23 21 20
22 23 23 25 27 28 27 26 27 26 25 27 27 28 28 28 27 26 27 27 27 26 27 27 27 27 27 27 27 27 27 26 24
27 28 28 30 31 30 30 31 30 31 30 32 32 30 31 32 30 27 27 26 27 27 27 27 28 28 27 28 30 30 30 30 29
29 31 31 31 32 32 34 35 37 36 34 36 35 35 35 35 34 32 29 29 29 29 29 28 28 28 28 29 30 32 34 33 32
32 33 33 34 35 36 36 38 38 39 38 40 39 41 40 38 36 34 33 32 31 30 30 30 31 31 32 33 33 32 32 34 36
34 35 36 37 38 39 40 41 42 43 40 37 36 38 41 39 37 35 34 33 32 32 34 34 35 36 36 37 38 37 34 35 39
36 37 38 39 39 40 39 39 38 38 39 37 35 36 39 40 43 40 37 33 33 34 31 35 38 40 40 41 42 43 43 41 40
36 36 37 37 37 36 36 35 34 36 35 35 35 35 37 37 39 43 39 37 34 32 32 35 39 40 40 40 41 40 48 50 49

GFSFLT1_700_spd_057.txt.gz
Wind_Speed
16 15 16 16 16 16 16 17 16 17 17 17 17 17 17 17 16 16 15 16 16 15 13 12 12 12 12 10 9 7 6 6 6
15 15 15 15 14 15 15 15 16 15 15 15 14 14 14 14 15 15 15 15 16 16 16 14 12 11 10 10 9 8 7 6 6
17 17 17 15 13 13 12 13 13 13 13 12 12 12 13 13 13 13 14 16 16 16 16 16 14 12 11 10 9 9 8 8 6
13 14 14 14 14 15 15 15 15 14 13 13 13 13 13 13 13 13 14 15 15 15 15 16 15 14 12 11 11 10 9 8 8
7 8 8 8 8 9 9 9 9 10 9 9 9 9 10 11 12 12 13 13 14 15 15 15 16 16 15 12 11 10 8 8 8
2 1 3 4 5 5 5 6 6 5 6 6 6 6 7 7 8 9 9 10 11 13 14 15 15 15 15 15 12 10 9 8 8
8 8 7 7 7 6 6 6 7 7 8 9 9 10 11 11 12 13 14 14 13 13 13 13 14 15 14 14 14 13 11 9 8
12 12 12 11 11 11 11 11 11 13 14 14 14 14 15 15 14 16 16 17 18 16 16 16 15 15 15 15 14 13 12 11 9
14 14 14 13 13 14 14 14 14 16 16 17 18 18 18 18 19 19 18 18 19 20 19 18 19 18 17 16 16 15 13 12 11
15 15 14 14 15 15 16 17 17 19 19 20 21 21 22 22 22 22 22 21 21 22 21 20 20 20 20 19 19 17 16 15 13
16 16 16 17 18 19 19 19 19 20 21 21 22 23 23 23 23 23 22 22 23 24 24 23 22 21 21 22 21 20 19 18 17
19 18 18 19 20 20 19 20 21 22 22 23 24 25 25 24 23 23 22 22 23 24 25 26 25 24 23 23 23 23 22 21 21
19 19 18 20 20 21 22 24 24 25 25 25 25 26 26 26 26 25 25 25 25 25 26 28 28 26 26 26 25 24 24 24 23
20 21 21 23 24 25 26 27 28 28 28 27 27 29 30 30 29 27 26 25 25 25 26 26 27 26 26 26 27 26 25 25 26
24 24 25 27 29 29 30 31 32 31 31 31 33 34 34 32 31 30 29 27 26 27 27 27 28 29 28 27 27 27 28 27 27
28 27 28 29 31 31 32 33 35 34 35 37 36 35 36 36 35 34 32 31 31 30 29 30 30 30 31 30 29 30 30 31 31
30 31 31 31 32 33 34 35 37 38 35 40 43 43 38 32 31 31 31 31 32 32 32 33 33 33 34 34 34 34 34 34 33
32 33 33 34 34 36 36 37 38 40 39 39 40 41 40 36 33 32 32 30 29 30 32 33 34 35 39 38 39 39 38 38 37
35 35 35 36 37 38 38 38 38 39 39 38 37 37 38 37 39 34 30 29 27 27 27 30 31 32 35 37 39 40 41 42 41
35 35 35 36 36 36 36 35 35 35 35 34 33 33 34 35 37 37 35 32 29 28 30 31 32 34 35 37 36 37 38 38 38

GFSFLT1_700_spd_060.txt.gz
Wind_Speed
16 15 16 15 16 15 16 15 15 14 14 14 14 13 14 13 13 13 13 14 13 13 12 11 11 10 9 8 7 7 6 7 6
15 14 15 14 15 14 14 13 12 12 12 12 12 12 13 13 13 13 13 14 14 13 13 13 11 11 10 9 9 9 8 6 5
17 17 16 15 14 13 12 12 12 12 12 12 12 12 12 12 12 13 13 14 14 14 13 13 14 13 12 10 9 9 8 8 7
12 12 12 12 13 12 12 12 11 11 11 10 10 10 10 11 11 11 12 13 14 14 14 14 13 13 13 12 11 10 9 8 8
6 6 7 7 7 6 6 6 5 5 4 4 4 5 6 6 6 7 7 8 9 11 12 13 14 13 13 13 12 11 10 10 10
4 2 2 0 1 1 2 3 4 4 4 4 5 7 8 9 9 10 12 11 11 12 13 13 13 14 14 14 13 13 12 12 11
9 9 9 8 8 8 8 8 8 9 9 10 11 12 13 14 14 14 14 15 16 14 15 15 15 15 15 15 14 14 13 12 12
13 13 13 13 13 13 13 13 13 13 14 15 16 17 18 18 18 18 19 19 19 17 18 18 18 17 17 16 16 15 14 14 13
15 15 15 15 15 16 16 16 16 16 17 17 18 19 21 21 22 23 23 23 23 21 20 21 21 20 19 19 18 17 17 16 16
16 16 16 16 17 18 18 18 18 19 20 21 21 22 23 23 24 25 25 25 25 24 23 22 22 22 21 21 21 20 19 18 18
18 18 18 18 19 20 20 21 21 21 21 22 23 24 24 24 25 25 25 25 25 25 25 24 23 23 23 22 23 23 23 22 21
18 19 20 21 22 22 21 21 21 22 22 23 25 26 26 25 24 25 26 27 27 28 28 28 28 27 27 26 25 25 25 24 23
18 19 21 22 22 22 22 23 24 25 26 26 28 28 27 26 27 28 28 28 28 28 28 28 28 28 27 28 27 26 25 25 26
22 21 22 23 23 24 25 27 28 29 30 30 30 31 30 30 31 33 32 30 30 30 30 30 30 29 29 29 29 29 28 25 26
25 25 25 26 26 28 29 30 32 32 33 34 33 34 34 35 34 33 34 35 34 33 33 33 33 32 32 32 31 31 32 30 27
28 28 28 29 30 30 32 33 34 34 35 38 38 38 37 37 37 36 34 33 33 33 35 35 34 34 34 33 33 33 33 33 33
30 31 31 33 34 34 34 34 35 36 37 39 40 42 41 40 34 31 31 30 29 31 32 34 35 35 35 35 36 37 38 36 35
32 33 34 34 35 35 35 36 37 39 38 37 39 40 41 40 37 32 30 30 29 30 29 31 33 34 34 35 37 36 37 38 37
34 35 36 37 37 37 37 37 38 39 39 38 37 36 37 38 39 36 32 29 30 30 28 26 26 28 31 33 33 35 37 38 37
36 37 37 36 36 36 36 35 36 36 36 36 35 33 35 35 36 39 37 33 29 26 27 28 31 33 34 35 36 37 37 38 38

GFSFLT1_700_spd_063.txt.gz
Wind_Speed
16 15 15 15 15 15 15 14 14 13 13 12 11 11 12 11 13 13 12 13 13 14 13 13 12 12 11 10 10 10 10 8 7
14 13 14 14 14 14 13 13 12 11 11 10 11 11 11 12 13 13 14 14 14 14 14 14 13 13 13 12 11 11 10 9 8
15 13 12 12 12 11 11 11 11 10 10 11 11 11 12 12 12 12 13 13 14 14 15 14 14 14 15 14 13 12 12 11 10
13 11 11 11 11 11 10 10 9 9 8 8 8 8 9 9 9 10 11 12 13 14 14 15 15 15 15 15 15 14 13 12 11
7 6 6 7 6 5 5 4 4 4 4 5 6 7 8 9 9 10 11 12 14 15 16 16 15 15 14 15 15 14 14 13 12
3 2 1 1 1 1 1 2 4 5 6 8 9 10 11 12 13 13 14 14 15 17 17 18 18 17 16 15 15 15 14 14 14
9 9 9 9 9 9 9 9 10 10 11 12 14 15 15 16 17 18 19 19 19 18 18 19 19 19 18 17 16 16 15 15 14
14 14 14 14 14 14 14 14 14 14 15 16 17 17 18 20 21 21 23 23 23 23 22 23 22 21 21 19 19 18 17 17 16
17 17 17 16 16 17 17 17 16 17 17 18 19 20 21 22 23 24 24 24 25 25 25 25 25 24 24 23 22 21 20 19 18
18 18 18 18 18 19 19 19 19 20 20 21 21 21 22 23 24 24 23 24 25 25 26 26 25 25 25 24 24 24 23 22 21
18 18 19 20 21 21 21 21 22 22 22 21 22 22 23 23 25 25 23 23 25 26 27 29 28 28 28 27 27 27 26 26 24
18 18 19 21 21 22 22 23 22 22 23 23 24 26 26 26 26 25 25 27 27 29 29 30 30 29 29 28 27 26 25 25 25
19 20 20 21 21 21 22 22 23 24 25 26 28 29 29 28 29 29 30 31 33 31 30 32 32 31 30 30 30 28 26 25 25
23 23 24 24 23 23 23 24 26 27 28 30 31 32 32 32 33 33 33 34 33 34 36 34 34 34 32 31 31 32 32 29 25
26 27 27 27 27 27 27 28 29 30 31 32 34 34 35 36 36 35 34 35 38 35 33 35 34 34 35 33 32 32 33 32 29
30 30 29 29 29 29 30 32 32 33 33 35 35 37 37 37 36 38 36 34 32 31 33 32 32 33 32 32 32 32 32 32 33
31 31 30 31 32 31 32 34 35 36 35 37 37 39 37 37 40 36 30 30 31 30 29 31 32 33 34 33 32 33 33 32 33
32 32 33 33 35 35 35 36 38 38 38 38 39 40 40 40 39 38 31 29 31 31 31 31 30 30 30 31 31 30 32 33 31
33 34 34 35 36 37 38 38 39 39 40 39 37 38 38 37 39 36 31 31 30 31 29 28 27 25 27 29 31 32 33 33 34
35 35 37 38 39 39 39 37 37 36 37 36 36 34 35 34 36 39 34 31 31 28 26 26 29 30 31 32 32 33 34 34 34

GFSFLT1_700_spd_066.txt.gz
Wind_Speed
17 17 17 16 15 15 15 15 14 13 12 12 11 11 12 12 14 14 15 16 16 16 17 17 16 15 14 14 13 12 12 11 9
15 15 15 14 13 12 12 12 12 11 11 12 12 13 13 13 15 16 16 17 17 18 18 18 17 16 16 15 14 13 13 12 11
14 13 13 12 12 12 12 12 12 12 12 12 11 11 11 11 13 13 14 15 15 16 17 17 17 17 17 16 16 15 14 12 11
15 13 12 11 11 11 10 10 10 9 9 9 9 10 10 11 12 11 13 14 15 16 16 17 17 18 17 17 17 16 15 15 14
10 10 9 9 8 7 6 6 6 6 6 7 8 10 11 13 13 14 13 14 15 17 17 18 18 19 18 18 17 16 16 16 15
2 2 2 1 1 1 2 3 4 6 7 9 11 12 13 15 16 16 17 17 16 17 19 20 19 19 19 19 18 17 17 16 16
4 5 6 6 7 8 9 9 10 11 12 13 14 15 16 17 18 18 19 20 20 20 19 20 21 21 21 20 20 19 18 17 16
9 10 11 12 12 13 14 14 14 14 15 15 15 16 18 19 20 20 20 21 21 21 22 21 21 21 21 22 22 21 20 19 18
13 12 13 14 15 15 15 16 16 16 17 17 18 19 19 20 20 20 20 21 21 21 21 22 23 24 23 23 23 23 22 21 21
14 14 15 15 15 16 17 18 18 18 19 20 20 20 20 20 21 21 21 22 22 22 24 24 24 25 24 25 25 24 24 23 22
14 14 15 16 17 18 19 19 20 21 21 20 20 20 21 22 23 23 23 23 24 26 27 29 28 26 25 25 24 23 23 23 21
13 14 15 16 17 18 19 20 20 20 20 21 22 23 24 25 26 26 26 26 26 28 30 29 30 30 29 28 26 24 23 22 22
14 16 17 19 19 19 20 21 21 21 22 23 25 27 28 27 27 28 29 31 30 29 29 32 33 32 31 30 29 27 25 24 22
17 19 20 22 23 23 23 23 24 25 25 27 27 28 29 30 31 31 32 31 32 35 33 32 31 29 30 30 29 28 28 27 25
21 23 24 25 26 26 26 26 27 27 29 30 31 31 31 33 33 32 32 32 32 32 32 30 29 28 27 28 28 28 26 26 27
24 25 27 27 27 27 28 29 30 30 30 33 33 32 33 34 34 33 33 31 29 28 29 28 29 29 27 27 29 28 27 25 25
26 26 27 28 29 29 29 31 32 33 34 36 37 39 38 34 35 35 33 32 30 32 27 27 28 28 28 29 27 27 27 26 24
28 28 29 31 32 32 32 33 34 36 37 37 38 38 41 38 37 36 34 31 30 31 30 28 29 27 24 24 25 24 24 25 25
30 30 31 32 33 34 35 36 38 39 39 37 36 36 38 38 39 33 32 33 31 31 30 29 29 23 24 26 27 28 28 28 29
31 31 32 33 34 36 37 37 38 38 38 36 35 34 35 35 37 39 33 33 34 30 31 31 30 26 27 29 29 30 30 29 28

GFSFLT1_700_spd_069.txt.gz
Wind_Speed
18 18 17 16 16 15 14 13 11 11 12 13 14 16 17 16 17 16 17 18 18 19 19 19 19 18 17 17 16 14 13 12 11
16 16 15 15 14 13 12 12 12 12 13 14 15 15 16 16 16 16 17 17 17 18 18 18 18 18 18 18 17 17 16 14 13
16 15 14 14 14 14 13 13 12 12 12 12 13 13 13 13 14 15 15 16 16 16 17 17 18 18 18 17 17 17 17 16 14
17 16 14 13 12 11 11 11 10 10 10 9 9 10 11 12 12 13 15 15 15 16 17 17 17 17 17 17 16 16 17 16 16
13 12 11 11 10 9 9 8 7 7 7 8 9 10 12 12 13 14 14 15 15 16 17 18 18 18 18 17 16 16 17 16 15
6 6 5 4 3 2 3 4 6 8 9 10 11 13 13 14 14 15 15 15 15 16 17 18 17 17 18 18 17 17 17 17 16
1 1 2 4 5 6 8 9 10 11 12 13 14 15 15 16 16 16 17 17 17 17 16 17 18 17 17 17 17 17 17 17 17
5 5 6 7 9 10 11 12 12 13 13 14 15 16 17 18 16 16 17 17 18 18 17 18 20 20 19 18 18 17 17 17 17
8 8 8 9 10 10 12 13 13 15 15 16 17 17 17 17 17 16 18 18 18 18 18 20 22 22 22 20 19 18 18 17 17
10 9 9 9 10 11 12 14 14 15 16 17 17 17 16 17 18 18 19 20 20 21 21 22 23 22 21 21 20 20 19 18 17
13 11 11 10 10 11 12 14 15 16 16 16 16 16 17 18 20 21 22 22 23 24 25 26 26 25 26 24 21 19 19 19 18
14 12 12 12 13 14 14 15 16 16 17 17 18 19 21 21 22 22 23 23 24 25 25 25 27 29 28 24 22 21 19 19 20
14 14 13 14 15 16 17 18 19 20 20 20 22 23 23 25 24 22 24 27 26 26 28 26 26 26 25 22 19 19 22 20 20
15 15 16 17 18 18 19 20 20 21 22 23 24 25 26 28 28 27 29 27 29 29 29 28 25 25 25 24 21 18 19 22 23
17 17 18 19 21 21 21 21 23 24 25 25 27 28 28 29 28 27 28 30 29 29 29 27 27 25 24 23 23 21 18 19 22
19 19 20 21 22 22 23 24 26 27 28 30 30 30 31 33 31 29 29 31 31 28 28 28 27 25 25 24 24 23 20 20 20
20 21 21 22 23 24 25 27 28 29 29 33 35 36 34 34 34 28 27 29 30 29 28 28 29 28 27 25 21 20 19 19 18
22 22 23 24 25 26 27 29 30 32 31 33 36 39 38 36 35 33 30 29 28 30 31 30 31 29 29 25 22 19 21 21 22
24 23 24 24 26 28 30 31 32 34 34 34 34 36 37 37 38 32 30 30 30 31 32 31 32 29 28 27 27 27 27 25 24
25 25 26 27 29 30 31 32 33 34 36 36 34 34 34 34 36 38 30 30 32 32 34 31 29 32 29 31 24 28 28 26 24

GFSFLT1_700_spd_072.txt.gz
Wind_Speed
17 17 17 16 15 13 13 12 13 13 14 15 16 17 18 18 18 17 17 17 16 17 17 17 17 18 18 17 17 16 15 14 14
17 16 15 14 13 12 13 13 14 14 14 15 15 16 15 14 14 14 14 14 15 15 16 15 16 16 16 16 16 16 16 16 15
16 15 15 15 14 14 14 13 13 13 13 13 12 13 12 12 13 13 13 13 13 14 14 14 15 15 15 15 14 14 14 14 15
18 17 15 15 14 13 13 12 12 11 10 10 10 10 11 12 13 13 14 14 14 14 14 14 15 14 15 14 14 13 13 13 12
16 15 13 12 11 10 9 8 8 8 8 9 10 11 12 12 13 13 13 14 14 14 14 14 15 15 15 14 13 13 13 13 12
10 9 8 6 5 4 3 4 7 8 9 10 11 12 12 13 14 15 14 14 14 14 14 14 14 15 15 15 14 13 13 12 12
4 3 2 0 2 4 6 7 8 10 11 12 12 13 14 15 15 14 13 14 14 14 14 14 15 16 16 16 15 14 14 13 12
2 2 3 4 5 6 7 8 9 10 11 12 13 14 16 15 14 14 14 15 15 15 15 16 17 18 19 17 16 15 15 13 13
6 6 6 7 7 8 9 9 10 11 12 13 15 15 15 15 14 14 16 17 17 17 18 19 20 19 19 17 17 17 16 15 13
11 9 9 8 8 8 9 10 11 13 14 15 15 14 14 15 15 17 18 18 19 20 21 21 21 20 19 19 20 19 18 16 15
13 11 11 10 8 8 9 10 11 13 13 13 13 14 15 16 17 18 20 20 19 21 22 22 22 23 22 22 19 17 17 17 16
15 13 13 12 10 10 10 12 13 14 14 15 16 16 17 18 19 20 21 21 21 23 22 24 22 24 23 19 17 17 17 17 18
18 16 16 14 12 12 13 14 15 15 16 16 17 18 20 21 22 23 23 23 23 22 24 26 25 24 21 19 16 16 18 20 19
20 18 18 16 15 15 16 16 17 18 19 19 20 21 22 24 25 25 26 27 27 25 27 27 27 26 23 20 17 15 15 19 21
22 21 20 18 17 18 19 18 19 20 21 23 24 23 24 25 26 27 28 30 30 28 27 26 25 26 25 23 21 19 17 18 19
23 22 20 19 20 20 20 20 21 22 24 27 27 26 27 29 28 29 24 27 29 28 25 24 24 25 24 23 23 22 20 18 18
24 22 20 21 21 21 22 23 24 25 26 29 32 32 30 30 29 31 29 24 26 28 26 25 26 25 25 26 24 22 18 16 16
23 22 23 22 22 22 24 25 26 27 27 29 33 36 36 34 34 31 29 30 29 29 29 27 28 28 28 27 26 24 22 22 20
24 24 24 24 24 24 24 26 27 30 29 30 31 35 38 36 38 33 29 30 30 31 31 31 28 29 30 28 28 27 28 26 24
27 26 23 23 24 25 26 27 28 30 32 33 33 35 36 36 37 37 31 31 32 33 33 32 29 31 29 26 26 29 22 22 24

GFSFLT1_700_spd_075.txt.gz
Wind_Speed
17 17 16 16 15 14 12 13 14 15 14 14 14 15 16 16 16 15 15 14 15 15 15 15 15 15 15 15 15 15 16 16 15
17 17 16 15 13 13 13 14 14 14 14 15 14 14 14 14 13 13 13 13 13 13 13 13 13 13 13 14 13 13 14 14 14
16 16 15 15 15 14 13 13 13 13 13 13 12 12 12 12 12 12 12 12 12 12 12 12 12 12 12 12 11 11 11 11 11
17 17 16 15 14 14 14 13 13 11 11 11 10 10 11 11 11 11 12 12 12 12 12 12 12 12 12 12 11 10 10 10 10
17 16 14 13 12 11 10 8 7 7 7 8 8 9 10 11 12 12 12 12 12 12 12 12 12 13 14 13 12 11 10 10 10
13 12 10 9 7 5 4 4 4 6 7 7 8 9 9 11 13 13 12 12 12 13 13 13 13 15 15 15 14 13 12 11 11
9 7 5 3 2 2 3 5 6 7 9 9 10 11 11 13 14 13 13 13 14 13 14 14 15 17 17 18 15 14 13 12 12
4 3 2 2 3 5 6 7 8 9 10 11 12 13 14 14 14 14 14 15 15 15 15 16 17 18 18 18 17 17 16 14 13
6 6 6 6 6 6 7 8 9 10 11 12 14 15 15 14 14 15 16 17 18 18 18 17 18 18 18 18 17 20 19 16 14
9 9 10 9 9 8 8 8 9 10 11 12 13 13 14 14 15 16 17 19 19 19 18 19 19 18 19 19 20 21 18 16 14
13 12 12 12 12 10 9 9 10 11 11 12 13 13 14 15 16 18 19 21 21 21 22 22 19 20 21 20 16 17 16 16 15
17 16 15 15 14 12 11 11 12 12 13 13 14 14 15 16 18 19 20 21 21 22 22 22 22 21 23 20 18 17 18 18 17
20 20 19 18 16 14 14 13 14 15 15 15 16 16 17 18 20 21 22 22 23 23 24 25 26 23 21 18 17 15 17 19 19
24 23 22 21 19 17 16 16 16 16 17 17 18 18 19 20 21 23 25 26 26 26 24 24 25 26 23 19 17 16 17 19 21
25 25 24 23 21 19 17 18 18 18 19 20 20 21 21 23 23 24 27 27 27 27 25 24 25 26 25 22 19 16 17 18 20
26 26 27 24 22 21 20 20 20 20 22 23 24 23 24 25 26 27 27 28 25 26 25 24 26 26 24 22 22 20 18 20 20
28 28 25 24 23 22 21 21 21 21 23 26 27 29 26 26 27 27 27 27 28 26 25 26 26 25 26 25 24 22 19 20 20
27 26 24 24 23 22 21 21 22 22 23 26 29 32 32 31 30 30 30 29 29 30 29 27 26 27 27 28 26 24 23 22 23
24 24 24 24 23 21 20 20 21 23 24 25 28 32 36 36 36 32 32 32 31 31 31 30 30 29 29 29 27 25 22 23 24
20 22 24 26 26 21 18 20 20 22 26 30 31 33 36 37 39 39 33 33 32 34 34 33 31 30 31 30 28 26 27 20 21

GFSFLT1_700_spd_078.txt.gz
Wind_Speed
17 18 18 17 16 15 15 15 15 15 14 15 14 14 13 13 13 13 13 12 12 12 13 13 12 12 12 12 11 11 12 12 12
19 19 18 16 15 15 16 15 14 14 14 13 12 12 11 11 11 10 10 11 11 11 12 12 12 11 11 11 10 10 10 10 9
18 16 16 16 16 15 15 14 14 13 12 11 10 9 10 10 10 10 10 10 11 11 12 11 11 12 12 12 11 10 9 9 9
17 16 16 15 15 14 14 13 12 10 9 8 8 8 9 9 10 11 11 11 11 11 11 12 11 12 13 13 13 12 11 10 9
19 18 16 15 13 12 10 9 7 6 6 6 7 8 9 10 11 11 10 10 11 11 12 12 12 13 14 14 13 12 12 11 10
18 16 14 11 9 7 5 3 3 4 5 5 6 8 9 10 11 11 10 10 11 11 12 12 14 15 15 15 15 13 12 12 12
15 12 9 7 5 3 1 2 4 4 5 6 7 8 9 10 12 11 11 11 12 12 13 14 16 17 18 17 16 14 14 14 13
9 8 6 4 3 3 4 5 6 7 8 8 9 10 10 11 12 12 12 13 14 15 15 15 16 18 18 17 17 16 17 16 14
9 7 6 6 5 6 7 7 8 8 9 10 10 11 11 11 11 12 14 15 16 16 17 16 18 19 18 19 18 18 18 15 13
11 10 9 9 9 8 8 8 9 9 10 10 11 11 11 12 13 14 15 17 18 19 19 18 19 17 19 19 20 19 17 14 13
14 13 13 12 12 11 10 9 9 10 10 11 11 12 13 13 14 16 17 18 20 20 20 21 19 18 18 20 19 17 17 16 15
17 17 16 16 15 14 12 11 10 11 12 12 13 13 13 15 15 17 18 19 20 20 21 22 22 22 19 18 15 17 16 17 18
21 21 19 19 19 17 15 14 12 13 13 14 14 14 15 16 18 19 20 21 22 23 22 21 23 22 21 16 18 19 19 19 19
25 24 23 23 22 21 19 17 15 16 16 15 16 16 17 17 18 20 22 23 24 24 24 22 22 23 22 22 20 19 19 21 20
29 28 26 26 25 24 22 20 19 18 18 17 17 17 18 18 19 20 22 24 24 23 24 24 22 23 24 22 21 20 20 21 20
30 29 28 28 26 25 25 23 21 19 19 19 18 18 19 20 20 21 23 25 25 24 23 23 25 24 25 23 21 20 21 22 22
27 27 27 26 25 26 26 23 21 19 18 19 21 20 19 20 21 22 23 25 25 26 25 24 24 25 25 25 24 22 22 21 22
28 28 25 25 26 27 24 22 20 18 15 17 20 23 23 25 24 27 28 30 29 28 27 27 25 25 26 26 26 26 24 23 23
25 25 26 25 26 25 24 24 21 18 14 15 17 24 29 33 35 31 31 32 32 31 29 29 28 27 27 28 28 27 26 25 25
28 25 22 25 25 25 24 27 25 22 15 18 26 30 32 32 36 36 31 34 33 32 32 31 30 29 28 29 29 29 25 24 23

GFSFLT1_700_spd_081.txt.gz
Wind_Speed
19 20 20 19 17 15 14 15 15 15 14 14 13 12 11 11 11 11 11 11 11 11 11 11 11 11 11 10 9 9 9 9 8
20 21 20 18 16 15 16 15 14 14 13 12 11 10 9 9 9 9 9 9 10 10 10 11 11 11 11 11 10 9 8 8 7
22 20 19 17 17 16 15 14 13 12 11 9 8 8 7 7 8 7 8 8 8 9 10 10 11 11 12 12 12 11 9 8 8
21 19 19 19 17 16 16 14 12 10 8 6 5 5 5 5 6 7 7 7 8 9 9 10 11 12 13 14 13 12 10 10 9
22 21 19 18 17 15 13 11 8 6 4 2 2 3 4 5 6 6 6 7 8 9 10 11 12 13 14 14 14 13 11 11 10
23 21 19 17 14 11 8 6 4 2 0 1 3 4 5 6 7 7 6 7 8 9 10 11 12 13 14 15 14 13 10 12 12
22 19 16 14 10 7 4 3 2 2 3 4 5 6 7 8 8 7 7 8 9 11 11 12 13 15 17 16 16 15 13 14 13
18 15 12 10 7 5 4 4 5 6 6 6 7 7 8 8 8 8 8 9 11 12 13 14 14 16 17 15 15 15 16 15 12
16 13 11 9 7 6 6 6 7 7 7 7 7 8 8 8 8 9 10 11 12 13 14 14 14 16 16 17 17 18 17 14 12
17 15 13 11 10 9 9 8 7 7 7 7 7 7 8 9 10 11 12 13 14 15 16 16 16 18 17 17 19 19 16 15 13
17 15 14 13 13 12 12 10 8 8 8 8 8 9 8 9 11 12 14 16 16 17 18 19 18 18 15 17 18 17 16 15 14
18 17 16 16 15 14 14 13 11 9 9 10 10 10 10 11 12 13 15 16 17 18 19 19 20 20 18 14 15 17 14 18 16
21 20 20 20 19 18 18 17 15 13 12 12 12 12 12 13 14 14 16 17 19 21 21 20 21 20 20 18 18 19 21 20 20
25 25 24 24 22 22 23 21 19 17 16 15 14 13 13 14 14 16 17 18 19 19 21 21 21 21 19 18 19 21 21 19 20
27 27 28 27 26 26 26 25 23 21 19 17 17 14 14 13 14 15 17 19 20 20 20 20 21 21 21 20 21 18 19 20 21
29 28 29 29 28 29 29 28 26 24 22 21 18 15 15 14 13 14 16 18 21 22 22 22 21 22 22 22 21 21 20 21 22
27 29 28 31 30 29 30 30 28 27 25 22 21 18 14 13 14 15 18 21 23 24 24 24 24 23 23 23 23 23 23 22 22
32 26 26 24 24 25 27 28 28 27 25 21 20 19 18 20 18 19 24 28 28 27 27 26 26 26 25 24 25 24 25 23 23
27 24 24 26 28 28 27 25 25 26 25 22 19 17 18 23 26 24 28 29 29 30 30 28 27 27 28 26 27 27 26 25 25
21 23 25 27 24 27 27 29 29 26 22 27 25 21 24 30 34 33 30 30 29 30 32 31 29 29 28 28 28 29 28 27 25

GFSFLT1_700_spd_084.txt.gz
Wind_Speed
17 17 17 18 17 15 14 13 13 13 12 12 11 10 10 9 8 7 7 7 7 8 9 9 10 10 10 9 9 8 8 8 8
20 21 21 19 17 16 15 15 14 13 12 11 10 8 7 6 6 5 5 5 7 7 8 8 9 9 9 9 9 8 8 8 9
23 23 22 20 17 17 16 14 13 12 10 8 7 5 5 4 4 3 4 5 6 7 7 8 8 9 10 10 10 9 8 8 7
25 24 21 19 18 17 15 14 12 10 8 5 4 3 2 2 3 3 3 4 5 6 7 7 8 10 11 11 11 10 9 9 9
25 23 21 20 18 16 15 12 10 6 4 2 1 1 2 3 3 3 3 4 5 6 7 8 9 10 12 13 12 11 10 9 10
25 24 22 20 19 16 13 10 7 5 3 2 3 3 4 4 5 4 3 4 5 7 8 9 10 10 12 14 12 12 11 12 13
27 25 23 21 17 13 11 9 6 5 5 4 5 5 5 6 5 4 4 5 6 7 8 10 11 12 14 14 13 13 13 14 14
28 25 22 19 15 12 10 8 7 7 6 6 6 6 6 6 6 5 5 6 7 9 10 12 13 14 14 15 15 14 16 16 13
26 23 20 17 14 12 10 9 8 8 7 7 7 7 6 6 6 7 7 8 9 11 12 14 15 17 15 15 16 17 18 15 13
24 22 19 17 15 13 12 10 9 9 8 8 7 7 7 7 7 8 9 10 11 13 13 14 15 18 18 15 18 20 18 16 14
24 22 19 18 16 15 14 13 12 11 10 9 8 8 8 9 9 10 11 12 12 13 14 16 17 18 17 17 16 17 16 18 17
25 23 22 20 19 18 17 16 15 14 13 12 11 11 11 10 11 12 13 13 14 15 16 16 17 18 19 15 15 16 20 15 19
27 25 24 23 22 21 20 19 19 18 17 16 15 13 13 12 13 13 13 14 15 15 16 16 17 17 18 17 15 17 18 15 19
28 27 26 26 24 23 23 23 22 23 22 21 18 16 14 14 14 14 14 14 14 15 16 17 17 18 18 18 18 20 21 20 20
30 30 28 28 27 27 26 26 26 26 26 24 22 19 18 17 16 16 15 15 15 15 17 18 19 20 20 20 20 21 22 21 21
30 30 30 31 29 29 28 28 29 30 31 29 26 22 20 20 17 15 15 15 16 18 20 21 21 22 23 23 23 22 23 22 23
33 27 29 29 29 30 30 31 31 32 34 31 30 25 23 21 17 16 17 18 19 22 24 24 24 24 25 25 25 25 25 25 23
35 32 31 30 29 27 27 27 29 31 34 33 30 28 24 24 21 20 20 22 25 26 25 26 26 26 26 27 27 28 29 27 27
44 39 38 39 33 30 30 28 29 30 28 28 29 26 26 27 26 26 25 28 30 30 30 30 28 28 28 29 29 28 29 29 29
45 40 38 35 28 27 24 29 29 37 29 31 25 24 22 25 29 30 33 35 34 32 30 29 30 30 30 29 28 30 29 29 30

GFSFLT1_700_spd_087.txt.gz
Wind_Speed
19 17 15 15 16 15 14 13 12 12 11 10 9 9 8 7 7 6 6 6 7 7 7 8 8 8 8 8 8 8 7 7 7
19 17 17 18 18 15 14 14 13 12 10 9 8 7 6 4 5 4 4 5 5 5 6 7 7 8 9 9 10 9 9 9 8
19 19 20 20 18 16 15 13 12 11 9 7 6 5 4 3 2 2 3 3 4 4 4 5 6 7 9 10 9 9 9 8 9
22 22 22 20 18 17 15 14 12 10 8 6 4 2 1 1 1 1 1 1 2 3 4 5 6 7 9 10 10 9 9 9 10
25 24 23 20 19 17 15 14 11 8 6 4 3 1 1 1 2 2 1 1 3 4 5 6 7 8 10 12 11 11 10 10 11
27 26 24 22 20 18 16 13 10 7 5 4 3 3 3 3 3 3 3 3 4 5 6 8 9 10 11 12 12 12 12 12 13
30 26 25 23 20 18 16 12 9 7 6 5 5 5 5 5 5 4 4 4 5 6 7 9 11 11 13 14 13 14 13 15 15
29 27 26 23 21 19 16 13 10 9 8 7 7 7 6 6 6 5 5 6 7 8 9 10 11 13 14 15 15 15 15 15 14
29 28 26 24 21 18 15 13 11 10 9 8 8 8 7 7 7 6 7 7 8 9 10 11 13 14 15 15 15 16 17 16 13
31 29 27 24 21 18 16 14 13 12 11 10 10 9 9 9 8 8 8 8 9 10 11 12 12 14 14 16 17 17 16 16 15
32 30 28 25 22 20 17 16 15 14 13 13 12 11 10 10 10 10 10 10 10 11 12 14 15 15 15 16 12 16 17 19 21
34 31 28 26 23 21 19 18 18 17 16 15 14 13 12 12 12 12 12 11 11 12 13 14 15 16 17 14 13 16 17 18 21
34 32 29 26 24 22 21 20 20 20 20 19 18 17 15 14 14 14 14 13 14 13 14 15 15 16 16 16 16 16 19 18 20
33 31 29 27 26 25 23 23 23 23 23 23 22 20 18 17 16 16 15 14 15 15 15 15 17 17 17 17 18 17 18 19 20
33 31 30 29 28 26 26 26 26 25 25 26 26 25 23 21 19 18 17 16 16 16 16 17 18 19 20 20 21 22 22 22 23
35 33 30 31 31 28 30 30 30 28 28 29 29 29 27 25 22 20 18 18 18 18 19 21 22 24 23 24 24 24 25 26 27
37 35 33 33 34 35 33 32 31 30 29 30 31 30 29 29 23 22 21 20 19 20 22 24 26 26 27 25 27 27 26 28 29
33 33 32 33 38 31 30 31 33 33 33 31 30 30 31 27 24 24 22 20 20 23 26 28 29 30 30 30 30 29 29 29 29
34 36 36 36 34 34 34 39 36 29 33 32 30 30 29 27 25 25 23 21 24 28 29 33 35 33 31 30 30 30 29 29 29
37 39 39 44 43 42 38 40 33 35 37 36 33 33 32 32 25 23 23 27 33 38 39 41 37 31 31 31 29 29 29 29 30

GFSFLT1_700_spd_090.txt.gz
Wind_Speed
19 19 16 13 13 13 12 10 9 9 9 8 8 7 7 6 6 6 6 6 6 6 6 7 8 8 9 9 9 8 8 8 8
20 18 16 14 14 14 12 11 10 10 9 8 7 5 5 4 4 4 4 4 4 4 5 6 6 7 8 9 9 9 9 8 9
20 18 16 17 16 15 13 12 11 10 9 7 6 5 3 2 2 2 3 3 3 3 3 4 6 7 8 10 10 10 11 10 10
21 18 19 19 18 16 15 14 12 10 9 7 4 3 2 1 1 1 2 1 1 2 3 4 5 6 8 11 11 10 10 9 10
21 21 22 21 19 18 16 14 12 10 8 6 4 3 2 2 2 2 2 1 1 2 4 5 6 7 9 10 11 11 11 11 12
23 24 24 22 20 19 17 15 13 10 7 5 4 4 4 5 4 4 3 3 3 3 4 5 7 9 10 11 12 12 12 12 14
26 26 25 23 22 20 18 16 12 10 7 6 6 6 6 7 6 6 5 5 4 4 5 7 8 9 10 11 12 13 13 14 14
28 28 26 24 23 20 18 15 12 10 8 8 8 8 8 8 7 7 6 6 6 6 6 7 9 10 11 11 12 13 15 15 15
29 28 26 24 23 21 20 16 14 11 10 10 10 10 9 9 8 7 7 7 7 7 8 9 9 11 13 13 14 15 15 14 15
30 30 28 27 25 23 20 17 14 13 13 12 12 11 11 11 10 8 8 8 8 8 9 10 11 12 13 14 14 14 15 16 17
33 32 31 29 27 24 20 18 17 15 14 14 13 13 12 11 11 9 8 9 9 10 10 11 12 13 13 13 13 13 17 20 20
35 33 31 29 27 25 23 21 19 17 16 16 15 15 14 13 13 12 11 10 11 11 11 12 12 13 14 13 12 13 13 16 19
36 34 31 31 29 27 24 22 20 19 19 18 18 17 16 15 14 14 13 13 12 12 12 13 14 14 15 16 16 17 17 18 19
36 36 35 33 30 27 25 24 22 21 21 20 20 21 20 19 17 17 17 15 14 14 14 14 15 15 16 19 21 21 22 22 23
38 37 35 33 31 29 27 25 24 23 22 22 23 24 23 23 22 21 20 19 17 16 16 16 16 17 19 21 22 23 24 24 25
37 37 35 33 32 29 27 26 27 25 25 25 26 26 27 27 26 25 23 21 19 18 18 18 19 20 21 23 25 25 26 26 27
33 35 33 32 31 30 33 29 29 29 27 28 29 30 30 28 30 28 25 23 21 20 19 19 21 23 23 27 28 28 28 27 27
35 36 34 34 34 34 34 32 32 32 33 30 31 32 32 28 28 30 24 23 22 21 20 21 23 26 30 30 31 30 28 27 26
38 34 40 40 34 34 32 30 32 29 34 33 30 32 34 33 33 32 25 27 25 23 22 26 30 35 35 36 30 28 27 27 27
37 35 32 33 32 33 34 33 36 41 39 31 31 42 42 35 34 33 33 30 27 22 25 32 33 27 26 24 25 25 25 24 26

GFSFLT1_700_spd_093.txt.gz
Wind_Speed
19 19 18 14 13 11 11 9 8 8 8 7 6 7 7 7 5 5 5 5 5 5 6 6 7 7 8 9 9 9 9 8 8
20 19 16 15 14 14 13 11 10 9 9 8 7 6 6 5 4 4 4 3 3 3 4 4 5 6 8 9 9 9 9 8 8
21 20 18 16 16 16 14 13 12 11 10 8 7 5 5 5 3 3 3 3 2 1 2 4 5 6 8 10 9 9 9 8 10
22 22 20 18 19 17 16 14 13 11 10 8 6 5 4 4 2 3 3 2 1 0 2 3 4 5 7 8 9 9 9 10 11
24 22 21 20 20 18 17 15 14 12 10 8 6 4 4 3 3 3 4 3 2 2 2 3 4 5 6 8 9 9 10 10 13
25 23 22 22 21 20 18 16 15 12 10 8 6 5 5 4 4 5 5 4 3 2 3 4 5 6 7 9 9 9 10 10 12
26 23 24 24 23 21 19 17 15 13 10 8 7 7 6 6 6 6 5 5 4 3 3 5 6 8 9 10 10 10 11 12 11
29 25 25 25 24 22 20 18 16 14 11 9 9 8 8 8 7 7 6 6 4 5 5 6 7 8 9 10 11 12 13 11 12
31 27 26 26 24 23 22 20 18 15 12 10 10 9 9 9 8 7 7 6 6 6 6 7 7 8 10 11 11 13 12 12 14
32 30 29 27 26 25 23 22 19 15 13 12 12 10 11 10 8 9 8 7 7 7 8 8 9 9 10 12 13 14 13 14 15
25 31 30 31 28 27 25 23 19 16 15 13 12 12 11 11 9 9 8 8 8 8 9 8 9 10 11 12 13 15 16 17 18
29 31 33 32 30 29 26 24 21 19 16 15 14 14 14 12 12 10 10 10 10 10 9 9 9 10 11 11 13 15 15 18 20
35 35 35 34 32 29 28 26 23 20 18 16 16 15 15 15 14 14 13 12 11 10 11 11 11 11 11 11 12 14 17 18 19
40 37 37 34 34 33 30 27 24 22 20 18 17 17 16 18 18 17 17 15 14 13 13 13 12 12 12 14 15 17 17 20 21
37 39 39 38 37 35 33 29 26 23 21 20 19 19 19 20 21 21 22 21 18 16 17 16 14 15 15 16 18 19 21 22 22
34 38 40 40 38 35 32 30 28 25 23 21 21 21 24 23 23 25 26 25 22 20 20 19 18 18 18 18 20 22 24 25 26
34 36 38 38 38 36 34 31 28 24 25 25 25 26 27 27 25 28 28 27 24 23 24 23 22 22 20 21 24 27 30 29 27
32 34 37 37 36 35 33 30 29 25 30 33 26 27 29 29 29 30 29 29 26 27 27 26 25 23 24 28 30 32 32 27 25
41 37 34 34 34 34 32 28 29 32 34 31 29 28 29 29 32 30 32 30 30 31 31 29 27 25 26 29 29 23 20 20 21
37 41 32 31 33 32 33 34 34 33 29 27 30 31 33 36 30 39 45 39 37 35 32 30 28 26 30 30 21 21 20 20 22

GFSFLT1_700_spd_096.txt.gz
Wind_Speed
19 17 16 15 11 10 10 9 8 7 7 7 7 8 7 6 5 5 5 5 5 5 4 4 5 6 7 7 7 7 8 8 8
21 19 17 16 14 14 12 11 10 8 8 7 8 7 7 5 4 3 3 3 3 3 2 2 4 5 7 7 7 8 9 8 9
23 21 19 16 16 15 14 13 11 10 9 8 7 6 5 4 4 3 3 2 2 1 1 2 3 4 5 7 7 8 8 9 10
24 23 20 17 17 17 16 14 13 11 10 9 8 8 6 5 4 4 4 3 2 1 1 2 3 4 5 7 8 8 8 9 10
25 23 20 20 19 19 18 17 15 13 11 10 8 8 6 5 5 5 5 5 4 3 2 2 3 4 6 8 9 8 9 10 12
26 24 22 21 21 21 20 18 16 14 13 11 9 8 6 5 6 6 6 6 5 4 3 3 4 5 6 6 7 9 10 11 11
24 24 23 22 23 24 22 20 18 16 14 12 10 8 6 6 7 6 7 7 6 5 4 4 5 6 7 7 7 9 10 10 10
26 26 25 24 25 25 24 22 19 17 15 12 10 8 8 7 8 8 7 7 6 5 5 5 6 7 8 9 9 9 11 10 10
31 30 28 25 26 26 24 23 21 19 16 13 11 9 9 8 8 9 7 7 6 6 6 6 6 7 8 8 10 10 9 11 11
34 35 32 28 28 27 26 25 23 20 17 15 13 11 11 10 10 9 9 8 7 7 7 7 6 7 8 8 8 9 9 10 12
32 32 33 30 30 29 28 26 24 21 18 16 14 12 13 12 10 10 9 9 9 8 8 7 7 7 8 8 9 9 11 12 14
31 44 28 31 33 33 31 30 27 24 21 18 15 15 14 13 12 11 12 10 10 8 9 9 9 8 8 8 8 9 12 14 16
34 27 30 33 37 35 34 32 29 26 22 19 18 16 16 15 15 13 13 11 12 10 11 11 11 10 10 10 10 10 12 14 16
36 36 30 34 39 39 35 33 31 28 25 23 21 19 18 17 17 17 16 15 14 13 13 15 15 14 13 12 13 14 14 16 18
41 39 39 35 40 38 37 35 34 31 27 25 23 22 20 19 18 18 20 19 18 17 17 18 18 18 17 17 17 17 18 19 21
43 43 41 41 39 38 37 37 37 33 30 28 26 24 23 21 18 19 23 21 24 22 21 22 23 21 21 21 21 21 22 25 27
48 40 40 43 41 42 41 40 37 34 32 29 27 27 25 23 26 26 28 22 27 26 24 25 25 24 24 25 24 25 26 29 30
44 40 37 38 41 42 41 39 37 35 33 30 29 29 29 27 28 30 25 25 28 29 27 27 28 28 28 27 27 27 27 27 23
38 42 35 35 37 39 39 39 38 35 32 33 33 32 33 34 35 27 26 25 27 29 30 28 31 31 31 29 29 28 28 23 21
41 50 41 39 39 40 39 40 39 36 35 37 40 37 32 32 27 28 30 32 32 36 39 37 39 36 34 30 30 30 27 22 22

GFSFLT1_700_spd_099.txt.gz
Wind_Speed
15 13 13 13 12 9 10 9 7 5 5 5 5 6 6 5 4 3 3 3 3 3 3 4 4 5 6 7 7 7 7 8 9
17 16 16 14 13 11 11 10 9 7 7 6 7 6 5 5 4 2 2 2 2 2 2 2 3 4 6 8 7 8 8 9 10
19 19 18 16 15 14 14 13 11 10 8 8 8 7 6 5 4 3 3 2 1 1 1 2 2 3 5 6 7 8 9 9 10
21 21 20 18 17 16 16 15 13 12 10 9 8 7 6 5 4 4 4 4 3 3 3 3 3 4 5 6 7 8 8 9 10
24 24 21 18 19 18 18 17 15 13 12 10 9 8 7 6 5 5 5 5 5 5 5 4 4 5 6 7 8 9 9 9 10
26 23 21 20 20 19 19 19 17 16 14 12 10 9 8 7 7 6 6 7 7 6 6 5 5 5 6 7 8 9 10 10 8
25 24 23 22 21 20 21 21 20 18 16 14 11 9 8 8 8 7 7 8 8 7 6 5 5 5 5 6 6 7 8 8 9
27 26 25 24 24 23 24 24 22 20 18 14 12 10 9 9 9 9 8 8 8 8 7 6 6 5 5 5 5 6 8 7 8
29 28 26 26 25 24 25 25 24 22 19 16 13 11 10 10 10 10 9 9 8 8 8 7 7 6 6 5 5 5 5 6 7
35 31 29 29 30 25 28 28 26 24 21 18 14 12 12 11 11 11 10 10 9 9 9 8 8 7 7 7 6 5 5 6 8
39 32 31 35 35 31 31 31 28 25 23 20 16 14 14 12 12 12 11 10 10 10 10 9 10 8 9 8 8 7 8 7 9
42 38 35 41 34 35 36 34 32 30 26 22 19 17 15 15 14 13 13 11 11 11 11 10 11 10 9 9 9 10 11 11 13
52 44 40 38 34 34 37 36 34 30 28 25 21 19 18 18 17 15 14 13 13 12 12 12 14 13 12 12 12 12 13 15 16
45 47 44 36 42 39 37 37 36 33 30 27 25 23 21 21 20 18 17 17 15 14 13 15 16 16 16 16 16 16 16 17 19
44 42 40 49 31 36 41 40 42 36 32 31 29 27 25 24 22 21 21 19 18 18 16 18 19 21 20 19 20 21 21 21 22
39 46 39 46 42 32 39 41 41 39 35 35 33 30 29 27 24 23 23 21 20 21 22 21 20 25 27 25 24 24 25 25 26
34 41 40 47 47 40 39 43 41 40 38 37 35 35 33 29 26 26 24 25 26 25 25 27 26 26 29 28 27 27 29 29 28
41 41 43 44 44 43 44 43 40 42 39 39 38 38 35 30 29 27 26 26 32 29 28 29 25 27 29 29 29 29 31 32 29
41 41 40 43 42 39 44 46 46 43 41 40 40 39 36 33 33 31 30 30 35 34 33 30 26 26 29 27 30 32 33 32 28
38 40 49 44 43 44 41 44 43 41 40 41 39 38 38 39 41 40 43 35 40 27 27 26 25 33 33 35 35 35 35 34 29

GFSFLT1_700_spd_102.txt.gz
Wind_Speed
11 9 10 10 10 8 7 8 7 6 5 4 3 4 4 4 3 3 3 2 2 2 2 3 4 5 6 7 7 7 8 8 9
13 12 12 11 11 11 9 8 8 7 7 6 5 5 5 4 4 2 2 1 1 0 1 2 3 4 5 7 7 7 7 8 8
14 15 15 14 13 13 13 11 10 9 8 8 6 6 5 5 4 4 3 2 2 1 1 2 3 4 5 6 6 7 7 7 8
16 17 17 16 15 15 14 15 12 10 9 9 8 8 7 6 5 4 4 3 3 3 3 3 2 2 3 4 5 6 6 6 7
19 20 20 18 16 15 15 16 15 12 11 10 10 9 8 7 6 5 5 5 5 5 4 3 3 3 3 3 3 4 5 6 6
22 23 22 18 18 16 16 16 17 16 14 12 11 10 8 8 7 7 7 6 6 6 6 6 4 4 4 3 4 4 5 5 5
24 24 22 20 21 20 19 19 19 18 16 14 12 11 10 9 8 8 8 8 8 8 7 7 5 5 5 5 5 5 5 5 5
25 25 25 24 24 23 22 22 21 19 18 16 14 12 11 9 9 9 9 9 9 9 8 7 7 6 7 5 5 6 6 4 5
25 27 26 27 27 26 22 24 22 22 20 18 16 14 12 11 10 9 10 9 9 9 9 9 8 8 7 7 6 5 5 5 6
25 29 31 29 30 28 25 27 25 25 24 20 18 16 14 12 11 10 11 10 10 10 10 10 9 9 9 7 8 6 6 5 7
24 27 31 32 33 34 29 29 30 29 27 24 21 18 16 14 13 12 12 12 12 12 11 10 10 9 9 9 8 9 8 8 9
26 30 35 37 37 36 36 34 35 34 32 28 24 21 18 16 15 14 14 14 13 13 12 12 11 11 9 11 11 11 11 11 13
30 34 39 40 38 44 40 38 40 35 35 29 26 24 22 20 18 16 16 16 15 15 13 14 13 12 12 12 13 14 16 15 16
29 30 34 44 45 41 45 43 42 37 38 32 31 28 26 23 22 19 19 19 18 17 16 15 15 15 16 15 15 17 18 20 20
33 29 34 39 45 45 41 37 43 43 40 37 35 34 30 28 25 22 22 21 21 21 19 19 18 20 20 19 20 19 19 22 24
26 28 30 39 44 44 50 46 42 45 39 39 39 36 35 33 28 25 24 23 23 23 23 22 21 22 24 25 24 23 23 22 25
24 28 31 33 40 44 45 38 38 40 42 41 41 41 40 37 30 29 27 25 25 23 23 24 24 25 28 28 27 26 26 25 26
30 27 30 36 40 39 38 39 39 51 47 43 43 45 45 34 34 33 30 28 26 25 25 27 27 28 28 30 29 28 25 26 28
30 29 26 35 42 42 45 39 34 36 37 39 49 48 44 41 39 36 34 32 31 31 30 29 32 31 27 23 26 30 26 25 30
35 36 29 34 32 46 53 48 44 44 43 45 44 50 47 44 41 38 35 37 36 35 34 39 44 29 26 28 34 32 32 37 34

GFSFLT1_700_spd_105.txt.gz
Wind_Speed
6 6 7 8 8 7 6 8 8 5 5 4 2 2 3 3 4 4 4 4 4 3 3 3 3 4 4 5 5 5 5 6 7
8 8 11 11 11 9 8 8 9 9 7 5 4 4 4 4 4 3 3 4 3 3 2 1 1 1 2 3 3 4 4 5 6
12 11 13 13 13 12 9 8 9 10 10 8 6 5 5 5 5 4 4 4 3 2 2 1 1 1 1 2 3 3 3 3 4
15 15 15 15 15 14 11 10 9 10 10 11 8 6 6 6 6 6 5 4 4 4 3 3 2 2 2 2 2 2 2 3 3
16 16 16 17 17 15 14 12 11 11 11 11 11 10 8 8 7 6 6 6 6 5 5 4 3 3 3 2 3 4 3 3 3
17 18 20 19 17 17 17 14 13 14 13 12 12 11 11 9 8 7 7 7 7 7 7 6 5 4 4 4 4 4 4 2 2
15 20 21 23 20 20 19 17 16 17 15 14 13 12 12 11 9 8 8 8 8 8 8 8 7 6 5 5 4 4 3 3 2
17 20 22 24 22 22 23 20 19 17 18 16 15 13 13 12 12 10 9 9 9 9 9 9 9 7 6 6 5 4 4 3 2
21 21 22 23 26 24 25 23 21 20 21 20 18 16 15 14 13 13 11 10 10 10 10 10 10 9 8 7 6 5 4 4 4
23 23 23 23 24 27 29 26 25 26 24 24 21 19 17 16 14 13 13 12 11 11 11 11 11 11 9 8 7 6 7 6 7
19 21 23 25 26 27 29 29 29 27 28 28 25 23 21 19 17 15 14 13 13 13 13 13 13 12 11 10 9 9 8 8 9
16 20 23 26 27 28 29 33 34 34 34 31 29 27 24 22 19 18 16 15 15 15 14 15 14 14 13 12 11 11 10 10 12
20 21 22 26 29 32 34 39 34 37 38 34 33 32 29 25 23 21 19 18 17 17 16 16 16 15 14 14 14 14 14 14 14
26 27 28 27 31 34 37 40 40 40 35 43 38 36 33 30 28 24 22 20 20 20 19 18 17 16 16 16 16 16 17 18 18
31 28 29 32 33 34 35 37 45 42 35 43 40 40 38 36 33 27 26 23 22 23 23 22 20 19 19 18 18 19 19 21 21
27 26 22 27 29 31 33 37 37 42 43 35 44 46 46 41 37 32 29 26 24 24 25 24 23 23 22 21 22 23 23 23 24
26 26 24 22 28 27 31 36 40 40 41 40 38 51 50 49 37 35 34 29 28 26 25 25 24 22 22 23 24 24 23 24 26
26 26 26 29 29 31 29 32 36 37 37 40 37 43 51 43 39 39 37 35 33 28 26 27 26 25 23 21 23 22 21 21 24
26 25 27 27 31 27 31 35 37 38 38 38 38 47 48 49 47 41 38 40 32 32 31 31 30 29 26 32 33 26 23 21 24
32 31 29 33 32 33 29 32 37 42 45 43 40 44 42 51 48 45 42 41 38 36 35 36 33 35 38 38 31 33 28 26 30

GFSFLT1_700_spd_108.txt.gz
Wind_Speed
6 7 6 7 6 8 4 3 4 5 7 8 5 2 2 3 3 4 4 4 5 5 4 3 3 2 1 1 1 1 1 2 2
8 9 9 9 9 11 6 6 5 4 4 6 6 5 4 3 4 4 4 4 4 4 4 3 3 2 1 0 1 1 1 2 2
12 11 12 13 12 13 10 8 8 7 5 5 5 5 5 5 5 5 5 5 5 5 4 4 3 3 3 2 1 1 2 2 2
15 14 15 16 14 15 12 11 10 10 9 7 6 6 6 7 7 7 7 6 7 6 5 5 5 4 4 3 3 3 2 3 3
15 16 16 16 17 17 15 13 12 12 12 10 9 7 7 7 8 9 9 8 8 8 7 6 6 6 5 4 4 4 3 3 3
16 18 17 18 18 18 17 15 14 14 14 13 12 11 9 9 9 9 10 10 10 10 9 9 8 8 7 6 5 5 4 4 4
17 18 21 20 21 19 19 17 17 17 17 15 14 13 12 11 10 10 10 11 12 12 11 11 11 10 9 8 7 6 6 5 5
21 21 20 22 23 24 22 21 20 19 19 19 16 16 15 14 14 12 11 11 12 12 13 12 12 11 11 9 8 8 7 7 6
23 23 23 23 25 24 24 25 24 22 22 22 21 19 18 17 16 15 14 13 13 13 13 14 13 13 12 11 10 9 9 8 8
28 28 26 25 26 24 26 26 27 26 25 25 24 23 22 20 19 17 16 16 15 14 14 14 15 14 14 13 12 12 11 10 10
25 24 26 28 26 25 25 28 29 31 28 27 28 26 26 24 23 20 18 17 17 16 16 16 16 16 15 15 14 14 13 12 12
18 22 21 23 26 28 28 30 27 36 29 32 31 30 30 28 26 25 22 20 19 19 18 17 17 17 16 16 16 15 15 14 14
17 16 17 20 23 26 28 30 33 33 32 37 35 34 32 34 30 29 27 25 22 21 20 19 19 19 18 18 17 16 16 15 15
14 15 22 26 26 26 27 31 32 36 37 34 40 38 38 38 35 33 30 29 26 23 22 22 21 20 20 19 19 18 18 18 18
19 26 27 30 31 31 32 30 32 32 35 39 38 35 42 42 44 37 36 32 29 28 25 24 23 23 22 22 21 20 19 19 20
28 23 29 31 32 28 32 32 33 35 36 38 40 42 33 40 46 44 42 37 34 31 28 27 27 25 26 25 23 23 22 22 22
32 32 31 31 30 30 28 30 30 32 36 40 37 41 44 49 41 42 51 51 42 35 30 30 29 28 28 27 25 24 23 22 23
33 32 30 29 31 29 29 26 29 32 33 32 35 40 43 35 37 41 45 47 42 37 31 34 33 31 29 27 26 22 20 22 25
31 32 31 32 29 28 27 28 27 31 34 34 36 36 38 36 35 38 41 54 43 40 39 37 36 31 30 29 30 30 30 30 28
34 34 33 33 31 31 32 32 32 33 33 37 39 38 39 39 42 40 39 42 45 43 42 42 41 34 36 36 37 34 29 29 28

GFSFLT1_700_spd_111.txt.gz
Wind_Speed
5 6 6 6 6 7 6 3 3 4 3 4 3 1 1 2 3 3 4 4 4 4 3 2 1 0 1 1 1 1 1 2 2
9 9 9 8 8 9 10 6 5 5 6 4 3 2 2 3 4 4 5 4 4 4 4 3 4 3 2 2 2 2 3 3 3
12 11 11 11 11 11 14 9 7 6 8 8 5 4 4 4 4 5 6 6 7 6 5 5 5 5 5 4 4 4 3 4 3
16 15 15 14 15 15 15 13 10 9 9 9 8 7 6 6 6 6 7 7 8 8 8 7 7 6 6 6 5 5 4 4 4
18 19 18 17 17 17 17 16 13 13 11 10 10 9 8 8 8 8 7 8 9 9 9 9 9 8 7 7 7 6 6 5 5
20 20 19 19 18 19 19 19 17 16 15 13 12 11 10 9 10 11 10 10 10 11 11 11 10 10 9 9 8 8 7 7 6
21 20 20 21 19 20 21 21 21 19 18 16 15 13 13 12 12 12 12 12 12 12 12 13 13 12 11 10 10 9 8 8 8
26 24 22 21 21 22 22 22 22 21 21 18 17 17 17 15 15 14 14 13 14 14 14 14 14 14 13 12 11 11 10 10 9
28 27 26 24 24 24 24 25 25 25 22 22 21 21 20 19 19 18 16 15 15 15 16 16 16 15 14 13 13 13 12 11 11
32 29 28 27 28 27 27 26 26 26 26 25 24 25 25 23 22 21 18 18 17 17 16 15 16 17 16 15 15 14 14 13 12
35 34 33 32 30 28 27 27 29 29 29 29 29 29 29 26 26 24 23 21 20 19 19 18 17 17 18 17 16 16 15 15 14
36 38 32 30 29 29 28 27 28 30 34 37 31 36 32 30 30 29 28 25 24 22 21 20 19 19 18 18 18 17 17 17 17
35 41 28 29 26 25 27 29 30 27 33 34 25 33 32 31 34 33 31 30 28 25 24 23 22 21 20 19 19 18 19 19 18
38 36 26 21 22 24 25 27 28 31 33 36 33 36 33 35 38 38 35 34 33 31 29 27 25 24 22 21 20 20 21 21 20
37 32 30 21 21 23 26 29 30 31 31 33 35 35 36 38 43 42 37 36 41 39 33 31 28 26 25 24 23 22 21 22 21
36 37 41 40 12 23 27 29 29 32 31 33 35 35 35 35 38 35 38 44 44 43 37 35 33 30 26 26 25 25 24 23 22
28 28 24 33 28 26 27 31 31 30 30 32 33 37 38 39 37 36 38 33 41 44 41 41 40 36 31 25 26 27 27 26 23
32 29 28 24 24 26 28 30 34 32 29 31 32 35 40 36 33 36 37 38 40 43 47 48 46 43 36 30 28 28 27 26 24
32 31 30 29 31 31 32 33 33 34 34 31 29 35 37 36 37 34 33 33 34 41 47 50 52 52 38 35 34 28 27 30 31
32 29 29 31 32 33 33 33 34 35 35 33 34 35 33 38 42 41 37 36 35 33 38 50 48 45 45 39 35 30 30 34 37

GFSFLT1_700_spd_114.txt.gz
Wind_Speed
6 7 7 6 6 7 9 4 2 1 3 5 5 2 2 3 4 4 2 3 3 4 4 4 3 2 1 1 1 2 2 2 3
10 9 10 8 8 8 11 6 4 3 3 3 4 5 4 4 5 5 4 4 4 5 5 4 4 4 3 3 3 3 3 3 3
13 12 12 11 12 11 11 12 7 6 5 5 5 5 6 6 6 6 5 5 5 6 6 6 6 6 6 6 5 5 5 4 3
18 16 16 14 14 14 14 15 12 10 8 7 6 6 6 7 8 8 7 7 7 8 8 8 8 8 8 8 8 7 6 5 4
20 20 19 18 17 18 18 16 18 14 12 10 9 8 8 8 8 8 8 9 10 10 10 10 9 9 9 9 9 8 8 7 6
22 21 22 21 21 20 20 20 20 18 15 13 12 11 11 11 10 10 9 10 10 11 12 12 12 12 11 11 10 10 9 8 7
25 24 22 22 23 21 21 21 23 21 18 17 15 13 14 14 13 12 11 12 12 12 13 13 14 14 14 13 12 11 10 10 9
30 29 26 22 24 25 23 24 23 21 21 20 18 17 17 18 16 14 14 14 14 14 14 15 15 15 15 14 14 12 12 11 11
33 32 32 30 27 26 26 26 24 24 24 23 22 22 21 22 20 18 16 17 16 16 16 16 16 16 16 15 15 14 13 13 12
37 35 34 34 32 29 28 28 26 27 26 26 27 24 25 25 24 23 19 20 20 18 17 17 17 17 17 17 16 15 14 14 13
35 34 35 36 34 32 32 30 30 29 30 28 28 29 28 27 28 27 24 22 23 21 20 19 18 18 18 18 17 17 16 16 15
37 36 35 34 36 35 39 36 32 32 34 33 32 30 28 33 34 31 29 26 25 24 22 22 21 20 20 20 19 18 18 18 18
45 39 40 36 37 38 39 32 31 30 29 29 29 36 26 31 29 33 32 31 29 28 27 25 25 24 23 22 21 20 21 21 20
42 41 41 36 35 36 37 27 29 29 31 30 31 29 30 30 35 33 31 33 36 33 28 31 28 28 26 24 24 22 23 22 22
40 38 37 37 38 33 40 30 24 25 27 28 29 30 30 33 33 33 34 37 39 37 36 35 33 32 30 28 27 25 24 24 23
38 35 35 39 38 34 31 33 18 21 24 27 32 31 32 33 33 30 31 37 35 40 41 38 40 36 34 32 29 27 26 26 24
40 38 33 36 37 31 32 46 36 20 21 27 29 32 34 33 32 32 33 32 33 36 41 45 46 40 37 37 35 31 29 32 29
51 40 36 32 33 31 29 31 31 28 28 27 30 31 35 33 31 30 31 32 34 37 36 38 38 40 38 42 40 37 30 29 31
44 35 43 32 32 31 29 29 25 28 31 32 31 32 35 36 35 32 32 31 33 32 37 38 38 43 46 45 45 40 36 36 36
57 43 39 33 33 32 32 31 31 30 31 32 31 33 31 37 38 40 34 33 34 35 35 34 36 33 39 50 48 41 40 41 38

GFSFLT1_700_spd_117.txt.gz
Wind_Speed
9 8 8 8 8 7 9 7 5 3 1 2 4 4 4 3 4 4 7 6 7 6 5 4 4 3 3 3 3 3 3 3 2
13 12 10 10 9 9 12 11 6 5 3 2 3 4 4 4 5 3 7 6 7 7 7 6 6 6 5 5 4 4 4 4 4
15 14 14 13 12 12 12 14 11 8 7 5 5 5 5 4 4 4 8 7 7 8 7 7 7 7 7 7 7 6 6 5 5
17 17 17 16 16 16 15 15 16 13 11 9 7 7 7 7 7 6 8 9 9 9 9 9 9 9 9 8 8 8 7 7 6
19 19 19 20 20 20 19 19 17 18 14 12 10 10 10 9 9 7 9 9 10 10 10 10 10 10 10 10 10 10 9 8 8
22 21 22 22 23 24 23 23 22 21 19 16 14 12 13 12 11 10 11 11 11 12 12 12 12 12 12 12 11 11 10 9 9
25 24 24 24 24 25 26 25 24 24 22 19 18 16 16 16 13 12 12 13 12 13 13 13 14 14 14 14 13 12 11 11 11
31 29 27 27 26 26 28 27 26 24 23 22 21 20 20 19 18 15 14 15 14 14 14 14 14 15 16 16 15 15 13 13 12
34 34 31 31 29 29 28 28 29 27 26 26 25 24 23 23 22 20 18 18 16 15 15 16 16 15 16 16 16 16 15 14 14
35 32 34 34 35 31 31 30 30 30 29 29 28 28 27 26 26 24 22 20 20 18 17 16 17 17 17 16 17 17 17 16 15
38 36 35 32 33 32 31 31 30 31 33 32 32 31 30 28 27 28 26 23 22 22 20 19 18 18 18 18 17 18 18 18 18
42 39 35 34 34 34 35 36 35 34 34 36 37 33 33 33 30 31 31 27 25 24 24 23 21 20 20 20 20 19 20 20 19
42 40 39 36 35 35 38 36 36 35 39 43 42 37 36 35 30 35 33 27 25 30 28 28 25 23 23 21 22 22 22 22 22
42 44 40 37 39 44 38 40 39 36 36 35 32 34 44 33 31 34 28 25 28 29 30 30 30 29 27 25 24 25 24 24 24
44 43 42 42 43 42 43 37 32 35 34 33 35 38 36 27 27 26 27 29 33 32 35 33 34 34 31 30 29 29 27 25 25
44 45 43 41 40 39 40 40 37 36 41 46 40 30 30 31 26 25 28 30 30 30 31 34 34 37 36 34 33 33 31 28 27
41 44 45 42 37 37 40 39 37 36 37 36 34 39 29 25 25 27 29 31 31 33 32 32 32 34 37 37 35 35 35 33 30
35 38 41 46 43 41 39 39 38 33 31 26 28 33 33 31 30 24 24 28 30 30 31 32 35 35 38 37 37 41 41 37 33
40 40 42 42 45 46 43 37 36 33 33 33 35 35 31 34 34 33 34 29 26 26 28 30 31 31 35 38 38 40 37 40 35
37 41 46 49 45 40 42 38 34 32 32 30 32 33 32 33 33 31 31 32 32 32 29 29 32 35 35 37 36 36 44 45 42

GFSFLT1_700_spd_120.txt.gz
Wind_Speed
11 11 10 10 10 11 10 11 9 6 5 4 4 4 3 3 5 7 6 7 8 8 8 7 7 6 5 5 4 4 4 4 3
13 13 12 12 12 13 13 14 12 9 8 6 5 5 6 5 4 8 9 9 9 9 9 8 8 7 7 6 6 5 5 5 5
17 15 15 15 15 15 15 15 16 12 11 10 8 7 6 6 6 8 9 9 10 10 10 10 9 9 8 8 8 7 7 7 6
20 19 18 18 18 18 17 17 18 18 15 14 12 10 9 8 7 8 10 10 12 12 12 11 11 10 9 9 9 9 8 8 7
22 22 21 20 21 21 21 20 20 20 20 18 16 14 12 11 10 9 11 11 12 13 13 13 12 12 11 11 10 10 10 9 9
24 24 24 24 23 24 24 24 24 24 23 22 19 18 16 15 13 12 12 12 12 13 14 14 14 14 13 12 12 12 11 11 11
27 25 27 27 26 26 26 27 28 27 26 25 24 21 21 20 17 16 14 14 14 14 14 15 15 15 15 15 14 14 13 12 12
31 30 29 29 29 28 28 28 28 28 26 26 26 25 25 24 22 19 18 16 16 16 15 15 14 15 15 15 16 15 15 14 13
36 35 34 33 31 30 30 30 29 29 30 29 29 29 28 28 26 24 22 20 19 17 17 16 15 15 15 15 15 16 16 15 15
39 40 38 35 32 32 32 32 31 32 32 31 32 32 31 31 30 29 26 24 22 21 19 19 17 16 15 15 15 15 16 16 17
38 39 40 38 35 34 34 33 34 34 33 34 34 33 33 34 34 33 31 28 26 25 23 21 20 19 18 16 15 16 16 17 17
43 41 40 41 40 37 36 34 33 32 34 35 35 35 36 36 36 36 35 33 30 28 27 26 24 23 21 19 18 17 17 17 18
47 47 43 40 41 38 36 33 33 33 32 34 37 39 40 39 41 40 39 36 35 35 32 30 29 26 26 23 22 19 19 18 19
49 48 47 42 42 41 40 39 37 36 36 38 37 39 39 42 49 46 44 41 35 38 33 28 29 30 29 27 26 23 22 20 20
46 49 48 48 44 42 41 40 38 39 39 40 40 37 40 45 30 46 41 42 48 39 30 30 30 32 32 32 31 29 27 24 25
45 47 48 49 49 42 40 41 41 43 42 41 38 40 39 46 49 32 30 35 28 26 31 29 33 34 35 35 38 36 32 30 28
45 44 44 47 48 44 41 40 41 40 41 39 37 40 43 35 35 36 29 32 30 26 28 32 33 32 31 35 40 40 35 35 33
40 43 44 43 46 46 42 40 42 41 43 40 36 43 36 36 37 34 40 38 36 38 35 34 33 34 34 33 35 38 38 40 39
31 38 39 42 41 41 42 42 43 43 44 42 42 41 41 37 34 31 26 28 31 27 28 31 28 31 31 32 33 34 36 39 37
21 25 29 37 41 40 42 47 43 46 47 46 42 40 39 39 38 34 32 30 31 36 38 33 28 25 29 31 32 32 33 35 37

GFSFLT1_700_spd_123.txt.gz
Wind_Speed
14 14 13 12 12 13 13 13 13 11 10 8 6 5 5 5 7 7 8 8 9 9 9 9 8 7 7 6 6 6 5 5 4
16 17 16 16 15 15 13 14 15 13 13 11 10 8 7 5 7 9 9 9 10 11 11 10 10 9 9 8 8 7 6 6 6
20 19 18 17 18 19 17 16 16 17 15 14 14 12 10 8 8 10 11 11 11 12 12 12 12 12 11 10 10 9 8 8 8
23 22 21 20 20 21 20 19 19 19 19 18 17 16 13 12 11 10 11 11 12 12 13 13 13 13 13 12 11 11 10 9 9
26 25 24 23 22 23 24 23 22 21 23 23 21 19 18 15 14 13 13 13 13 13 14 14 14 14 14 13 12 12 12 11 11
29 27 26 26 26 25 25 25 26 25 25 25 24 24 21 19 18 16 15 15 14 14 14 15 15 15 14 14 14 13 13 12 12
30 30 28 27 27 28 28 27 27 28 29 28 27 26 25 23 23 21 19 18 16 16 16 15 15 15 15 15 15 15 14 13 13
35 32 30 30 30 30 30 29 29 29 29 30 30 28 29 28 27 25 24 21 20 18 17 17 16 15 16 15 15 15 15 15 15
39 39 37 36 35 34 33 32 31 30 30 29 32 31 31 31 30 29 27 25 23 22 21 19 18 16 16 16 15 15 15 15 15
43 43 43 41 41 40 37 35 35 34 32 31 32 32 32 33 33 32 31 29 28 26 25 22 21 19 18 17 16 16 16 16 16
45 44 45 46 42 41 41 39 36 35 34 35 35 32 33 33 35 35 35 35 32 31 29 27 25 24 22 20 19 17 17 16 16
48 49 47 45 47 45 42 40 39 37 35 35 35 33 32 35 36 37 38 39 38 35 34 32 30 28 25 23 22 20 18 17 16
49 51 51 50 48 50 48 45 41 40 38 38 35 34 34 34 37 39 41 43 43 41 39 35 35 34 30 28 25 23 21 20 18
46 50 52 53 52 52 51 49 45 41 38 36 35 36 36 36 35 37 44 47 48 46 45 41 42 38 34 33 30 28 25 24 23
47 47 51 51 53 54 53 50 45 43 41 39 38 37 38 38 38 39 39 47 46 46 50 46 44 46 40 37 34 32 30 29 27
47 48 48 49 52 53 53 53 47 45 43 41 40 39 39 41 42 36 38 41 40 43 47 40 50 35 40 34 34 34 34 32 32
39 44 43 44 48 50 49 51 50 46 44 41 40 42 45 46 42 37 37 36 35 33 38 41 38 31 30 32 31 34 35 37 37
37 39 37 39 40 43 45 45 46 47 43 41 38 43 45 43 41 40 39 37 39 34 37 33 31 33 36 33 32 32 33 38 38
32 29 28 31 32 34 40 41 42 45 45 42 43 42 47 49 51 42 38 34 30 30 27 27 30 34 36 37 36 36 32 34 36
24 18 18 20 22 25 32 41 40 42 45 47 38 43 46 52 53 43 40 33 34 32 30 35 31 30 29 33 36 35 31 28 33

GFSFLT1_700_spd_126.txt.gz
Wind_Speed
16 16 16 16 15 14 13 13 13 14 13 11 11 10 9 9 8 8 8 9 9 9 9 9 9 8 7 7 6 6 6 6 6
17 18 18 17 16 16 16 15 15 16 16 15 13 11 9 10 11 11 10 10 10 10 9 10 10 10 9 9 8 8 7 7 7
21 21 21 20 19 19 18 18 18 18 19 19 17 15 12 11 12 12 12 12 12 12 12 11 11 11 11 11 10 10 10 9 8
26 25 24 23 23 22 21 21 20 20 20 22 22 19 16 14 14 13 13 13 13 14 13 13 12 12 12 12 12 12 11 10 10
31 30 28 27 26 24 23 23 22 23 23 23 24 24 22 18 17 16 16 15 14 14 14 14 14 14 14 13 13 12 12 12 11
31 30 31 31 30 28 26 26 25 25 26 25 25 26 25 23 22 20 19 18 16 15 14 14 15 16 15 14 14 14 13 12 12
34 33 31 32 32 33 30 28 28 27 26 27 28 28 28 28 27 25 23 22 20 18 16 16 15 16 16 16 16 16 15 14 14
35 37 37 36 35 35 35 33 31 30 29 29 29 28 30 31 29 29 27 26 24 22 20 18 17 17 16 17 17 17 17 16 16
38 39 39 40 40 41 41 39 37 35 34 33 31 30 29 30 31 31 32 30 28 27 24 22 20 19 18 18 17 17 17 17 17
43 43 42 41 42 45 46 45 44 41 38 37 36 33 32 31 31 32 34 34 32 31 29 27 25 23 21 20 19 19 18 17 17
44 45 47 47 45 45 48 50 48 47 43 41 39 36 34 34 34 34 35 36 36 34 33 32 30 27 26 24 23 21 20 18 18
40 44 46 48 49 50 50 50 50 50 45 44 41 38 35 37 38 37 36 38 38 37 36 37 35 33 31 30 28 26 23 21 19
36 38 41 45 48 52 54 53 52 51 49 46 44 40 37 37 37 37 38 38 39 40 40 39 39 39 37 35 34 30 28 25 22
36 38 41 46 49 50 54 57 54 53 52 51 48 44 41 41 39 39 37 39 40 41 40 43 46 46 46 40 38 36 34 30 28
37 43 43 43 45 50 52 55 57 56 54 52 47 45 42 39 43 41 38 36 33 35 38 42 43 46 54 46 45 43 40 38 33
36 38 37 39 40 41 44 49 53 55 53 51 47 47 45 44 40 39 38 38 36 38 35 39 35 41 43 50 50 43 43 39 39
36 34 35 36 39 41 42 41 45 47 47 48 46 47 47 46 44 40 39 37 37 36 35 35 31 33 30 38 41 45 46 40 42
35 33 31 31 33 34 35 34 35 38 40 38 44 43 43 45 43 42 41 38 38 36 35 35 36 31 24 31 32 37 33 30 37
27 28 33 28 27 28 28 27 30 30 33 32 38 42 40 37 40 42 39 35 40 38 34 30 29 31 33 31 29 33 33 34 38
27 26 28 27 30 29 27 23 23 23 28 28 32 37 43 30 38 42 35 33 40 43 37 33 29 28 28 29 32 39 39 40 45